DB0MOE-6 Weather Reports


time (UTC)temp
C
wind
direction
speed
KPH
gust
KPH
rain 1hr
cm
rain 24hr
cm
rain mn
cm
humidity
%
barometer
mb
20260506175421 11 121 0.0 1.6 0.13 1.70 1.70 88 988.6
20260506175321 11 98 0.0 1.6 0.10 1.68 1.68 88 988.6
20260506175223 11 112 0.0 0.0 0.10 1.68 1.68 88 988.7
20260506175123 11 112 0.0 1.6 0.10 1.68 1.68 88 988.6
20260506175023 11 67 0.0 1.6 0.10 1.68 1.68 88 988.6
20260506174923 11 34 0.0 1.6 0.10 1.68 1.68 88 988.5
20260506174822 11 48 0.0 1.6 0.13 1.68 1.68 88 988.5
20260506174722 11 40 0.0 3.2 0.13 1.68 1.68 88 988.4
20260506174622 11 151 1.6 3.2 0.13 1.68 1.68 88 988.5
20260506174522 11 57 0.0 3.2 0.13 1.68 1.68 88 988.5
20260506174422 11 88 0.0 1.6 0.13 1.68 1.68 88 988.5
20260506174322 11 90 0.0 1.6 0.13 1.68 1.68 88 988.4
20260506174222 11 90 0.0 3.2 0.10 1.65 1.65 88 988.4
20260506174122 11 125 0.0 3.2 0.10 1.65 1.65 88 988.4
20260506174022 11 233 0.0 1.6 0.10 1.65 1.65 88 988.4
20260506173922 11 315 0.0 1.6 0.10 1.65 1.65 88 988.4
20260506173822 11 18 0.0 1.6 0.10 1.65 1.65 88 988.4
20260506173722 11 15 0.0 3.2 0.10 1.65 1.65 87 988.6
20260506173622 11 97 1.6 8.0 0.10 1.65 1.65 87 988.3
20260506173522 11 92 3.2 8.0 0.10 1.65 1.65 87 988.2
20260506173422 11 90 1.6 3.2 0.10 1.65 1.65 87 988.2
20260506173322 11 211 0.0 3.2 0.10 1.65 1.65 88 988.4
20260506173222 11 80 0.0 1.6 0.10 1.65 1.65 87 988.3
20260506173122 11 52 0.0 1.6 0.05 1.63 1.63 87 988.3
20260506173022 11 141 0.0 1.6 0.05 1.63 1.63 87 988.3
20260506172922 11 95 0.0 1.6 0.05 1.63 1.63 87 988.2
20260506172822 11 82 0.0 0.0 0.05 1.63 1.63 87 988.3
20260506172722 11 75 0.0 1.6 0.05 1.63 1.63 87 988.3
20260506172622 11 78 0.0 1.6 0.05 1.63 1.63 87 988.2
20260506172522 11 97 0.0 3.2 0.05 1.63 1.63 86 988.3
20260506172422 12 112 1.6 3.2 0.05 1.63 1.63 86 988.2
20260506172322 12 71 0.0 3.2 0.05 1.63 1.63 87 988.1
20260506172222 12 340 0.0 1.6 0.05 1.63 1.63 86 988.3
20260506172122 12 326 1.6 3.2 0.10 1.63 1.63 86 988.2
20260506172022 12 198 1.6 3.2 0.10 1.65 1.63 86 988.0
20260506171922 12 102 0.0 3.2 0.10 1.65 1.63 86 988.2
20260506171822 12 270 1.6 3.2 0.10 1.65 1.63 86 988.1
20260506171722 12 335 1.6 3.2 0.10 1.65 1.63 86 988.2
20260506171622 12 105 1.6 1.6 0.10 1.65 1.63 86 988.1
20260506171522 12 12 0.0 1.6 0.10 1.65 1.63 86 988.2
20260506171421 12 90 0.0 3.2 0.10 1.65 1.63 86 988.2
20260506171321 12 104 1.6 3.2 0.10 1.65 1.63 86 988.2
20260506171221 12 90 1.6 4.8 0.10 1.68 1.63 86 988.0
20260506171121 12 90 1.6 4.8 0.10 1.68 1.63 85 988.1
20260506171021 12 107 1.6 4.8 0.10 1.70 1.63 85 988.0
20260506170921 12 112 1.6 4.8 0.10 1.70 1.63 86 988.2
20260506170821 12 93 1.6 1.6 0.10 1.70 1.63 86 988.2
20260506170721 12 277 1.6 11.3 0.10 1.70 1.63 86 988.1
20260506170621 12 112 3.2 11.3 0.05 1.70 1.60 86 988.0
20260506170521 12 79 1.6 3.2 0.05 1.70 1.60 86 988.0
20260506170421 12 93 0.0 1.6 0.05 1.70 1.60 86 988.1
20260506170321 12 248 0.0 1.6 0.05 1.70 1.60 86 988.1
20260506170221 12 230 1.6 9.7 0.05 1.70 1.60 86 988.1
20260506170121 12 241 1.6 9.7 0.05 1.75 1.60 86 988.0
20260506170021 12 129 1.6 3.2 0.05 1.80 1.60 85 988.0
20260506165921 12 116 1.6 3.2 0.05 1.80 1.60 85 988.1
20260506165821 12 107 1.6 3.2 0.05 1.93 1.60 85 988.0
20260506165723 12 154 1.6 4.8 0.05 1.96 1.60 85 988.1
20260506165623 12 143 1.6 9.7 0.05 2.01 1.60 86 988.1
20260506165523 12 135 1.6 9.7 0.05 2.03 1.60 86 988.0
20260506165423 12 150 1.6 9.7 0.05 2.11 1.60 85 988.0
20260506165323 12 140 1.6 8.0 0.05 2.11 1.60 86 988.1
20260506165222 12 52 0.0 8.0 0.05 2.13 1.60 86 988.0
20260506165122 12 52 1.6 8.0 0.05 2.16 1.60 86 988.1
20260506165022 12 91 1.6 3.2 0.05 2.18 1.60 86 988.0
20260506164922 12 110 1.6 3.2 0.05 2.18 1.60 85 988.0
20260506164822 12 116 1.6 3.2 0.03 2.16 1.55 85 988.0
20260506164722 12 116 1.6 3.2 0.03 2.18 1.55 85 988.0
20260506164622 12 150 1.6 4.8 0.03 2.18 1.55 85 988.1
20260506164522 12 158 1.6 4.8 0.03 2.18 1.55 85 988.2
20260506164422 12 104 1.6 8.0 0.03 2.18 1.55 85 988.1
20260506164322 12 112 1.6 4.8 0.03 2.18 1.55 85 988.1
20260506164222 12 319 1.6 8.0 0.03 2.21 1.55 85 988.1
20260506164122 12 253 3.2 8.0 0.03 2.21 1.55 86 988.1
20260506164022 12 138 1.6 3.2 0.03 2.21 1.55 86 988.0
20260506163922 12 135 1.6 4.8 0.03 2.26 1.55 85 988.0
20260506163822 12 124 1.6 4.8 0.03 2.26 1.55 86 987.9
20260506163722 12 68 1.6 3.2 0.03 2.26 1.55 86 988.0
20260506163622 12 109 1.6 4.8 0.03 2.26 1.55 85 988.0
20260506163522 12 112 1.6 4.8 0.03 2.26 1.55 85 988.0
20260506163422 12 131 1.6 4.8 0.03 2.26 1.55 85 988.1
20260506163322 12 135 1.6 3.2 0.03 2.26 1.55 86 988.0
20260506163222 12 152 1.6 3.2 0.03 2.26 1.55 85 988.1
20260506163122 12 135 1.6 3.2 0.03 2.26 1.55 85 988.1
20260506163021 12 150 0.0 3.2 0.03 2.29 1.55 86 988.1
20260506162921 12 159 0.0 3.2 0.03 2.29 1.55 86 988.0
20260506162821 12 236 1.6 3.2 0.03 2.29 1.55 85 988.0
20260506162721 12 201 1.6 4.8 0.03 2.31 1.55 86 988.1
20260506162621 12 124 1.6 4.8 0.03 2.31 1.55 85 988.1
20260506162521 12 116 1.6 3.2 0.03 2.31 1.55 85 988.1
20260506162421 12 112 1.6 4.8 0.03 2.31 1.55 85 988.2
20260506162321 12 112 1.6 4.8 0.03 2.31 1.55 85 988.0
20260506162221 12 112 1.6 3.2 0.03 2.31 1.55 85 988.1
20260506162121 12 131 1.6 3.2 0.00 2.29 1.52 85 988.1
20260506162021 12 118 0.0 3.2 0.00 2.31 1.52 86 988.2
20260506161921 12 40 0.0 3.2 0.00 2.31 1.52 85 988.0
20260506161821 12 112 1.6 3.2 0.00 2.31 1.52 85 988.0
20260506161721 12 113 0.0 3.2 0.00 2.31 1.52 86 988.0
20260506161621 12 244 1.6 1.6 0.00 2.31 1.52 85 988.2
20260506161521 12 264 1.6 8.0 0.03 2.31 1.52 84 988.2
20260506161421 12 290 1.6 8.0 0.03 2.31 1.52 84 988.2
20260506161321 12 216 1.6 3.2 0.03 2.31 1.52 85 988.1
20260506161223 12 114 1.6 3.2 0.03 2.31 1.52 86 988.1
20260506161123 12 112 1.6 3.2 0.03 2.31 1.52 86 988.1
20260506161023 12 37 0.0 3.2 0.03 2.31 1.52 86 988.1
20260506160923 12 357 0.0 3.2 0.03 2.31 1.52 85 988.1
20260506160822 12 131 1.6 3.2 0.03 2.31 1.52 85 988.1
20260506160722 12 129 1.6 3.2 0.03 2.31 1.52 85 988.2
20260506160622 12 119 1.6 3.2 0.03 2.31 1.52 85 988.1
20260506160522 12 135 3.2 4.8 0.03 2.31 1.52 85 988.1
20260506160422 12 113 1.6 4.8 0.05 2.31 1.52 85 988.0
20260506160322 12 45 3.2 9.7 0.05 2.31 1.52 85 988.0
20260506160222 12 48 3.2 9.7 0.05 2.31 1.52 85 988.2
20260506160122 12 118 0.0 3.2 0.05 2.31 1.52 85 988.2
20260506160022 12 98 1.6 3.2 0.05 2.31 1.52 86 988.1
20260506155922 12 180 1.6 4.8 0.10 2.31 1.52 85 988.1
20260506155822 12 169 3.2 8.0 0.10 2.31 1.52 84 988.1
20260506155722 12 115 1.6 8.0 0.10 2.31 1.52 85 988.2
20260506155622 12 68 0.0 4.8 0.13 2.31 1.52 86 988.1
20260506155522 12 76 0.0 8.0 0.13 2.31 1.52 85 988.1
20260506155422 12 98 1.6 8.0 0.13 2.31 1.52 85 987.9
20260506155322 12 139 1.6 8.0 0.15 2.31 1.52 84 988.1
20260506155222 12 352 1.6 8.0 0.15 2.31 1.52 84 988.2
20260506155122 12 69 1.6 1.6 0.15 2.31 1.52 85 988.2
20260506155022 12 140 1.6 4.8 0.15 2.31 1.52 83 988.1
20260506154922 12 164 3.2 9.7 0.15 2.31 1.52 83 988.2
20260506154822 12 178 4.8 9.7 0.18 2.31 1.52 82 988.1
20260506154722 12 119 3.2 9.7 0.18 2.31 1.52 83 988.1
20260506154622 12 59 1.6 3.2 0.18 2.31 1.52 84 988.1
20260506154522 12 123 1.6 8.0 0.20 2.31 1.52 83 988.1
20260506154422 12 113 3.2 8.0 0.20 2.31 1.52 83 988.2
20260506154322 12 84 1.6 8.0 0.20 2.31 1.52 84 988.2
20260506154221 12 225 1.6 8.0 0.20 2.31 1.52 84 988.1
20260506154122 12 122 1.6 9.7 0.23 2.31 1.52 83 988.1
20260506154021 12 112 3.2 9.7 0.23 2.31 1.52 84 988.1
20260506153921 12 112 1.6 9.7 0.23 2.31 1.52 85 988.1
20260506153821 12 217 1.6 3.2 0.23 2.31 1.52 85 988.1
20260506153721 12 262 1.6 8.0 0.23 2.31 1.52 85 988.2
20260506153621 12 246 3.2 8.0 0.28 2.31 1.52 85 988.1
20260506153521 12 113 1.6 9.7 0.28 2.31 1.52 85 988.2
20260506153421 12 112 3.2 9.7 0.28 2.31 1.52 85 988.2
20260506153322 12 107 1.6 9.7 0.28 2.31 1.52 86 988.1
20260506153221 12 91 1.6 4.8 0.30 2.31 1.52 86 988.4
20260506153121 12 143 1.6 8.0 0.30 2.31 1.52 86 988.1
20260506153021 12 131 1.6 8.0 0.33 2.31 1.52 86 988.1
20260506152921 12 109 1.6 4.8 0.33 2.31 1.52 87 988.0
20260506152821 12 135 1.6 4.8 0.33 2.31 1.52 87 988.1
20260506152721 12 112 1.6 3.2 0.36 2.31 1.52 87 988.2
20260506152621 12 68 1.6 3.2 0.36 2.31 1.52 87 988.1
20260506152521 12 85 1.6 3.2 0.36 2.31 1.52 87 988.1
20260506152421 12 111 3.2 8.0 0.36 2.31 1.52 86 988.1
20260506152321 12 107 3.2 8.0 0.38 2.31 1.52 87 988.0
20260506152223 12 52 0.0 3.2 0.38 2.31 1.52 87 988.0
20260506152123 12 124 1.6 3.2 0.38 2.31 1.52 87 988.0
20260506152023 12 135 1.6 3.2 0.38 2.31 1.52 88 988.1
20260506151923 12 127 1.6 3.2 0.38 2.31 1.52 88 988.0
20260506151822 12 112 1.6 4.8 0.38 2.31 1.52 87 988.0
20260506151722 12 112 1.6 4.8 0.43 2.31 1.52 87 988.0
20260506151622 12 112 3.2 8.0 0.43 2.31 1.52 88 988.0
20260506151522 12 112 3.2 8.0 0.38 2.29 1.50 88 988.1
20260506151422 12 112 3.2 8.0 0.38 2.29 1.50 88 988.0
20260506151322 12 112 3.2 8.0 0.38 2.29 1.50 88 988.1
20260506151222 12 36 0.0 4.8 0.38 2.29 1.50 89 988.1
20260506151122 12 66 1.6 3.2 0.38 2.29 1.50 89 988.1
20260506151022 12 309 0.0 3.2 0.43 2.29 1.50 89 988.2
20260506150922 12 137 0.0 1.6 0.43 2.29 1.50 89 988.3
20260506150822 12 112 1.6 4.8 0.43 2.29 1.50 89 988.1
20260506150722 12 152 1.6 11.3 0.43 2.29 1.50 89 988.3
20260506150622 12 122 1.6 11.3 0.43 2.29 1.50 89 988.2
20260506150522 12 123 1.6 4.8 0.43 2.29 1.50 89 988.1
20260506150422 12 48 1.6 4.8 0.43 2.26 1.47 89 988.0
20260506150322 12 172 1.6 3.2 0.43 2.26 1.47 89 988.0
20260506150222 12 53 1.6 3.2 0.46 2.26 1.47 89 988.0
20260506150122 12 248 1.6 3.2 0.48 2.26 1.47 89 988.0
20260506150022 12 39 1.6 3.2 0.51 2.26 1.47 89 988.0
20260506145922 12 315 1.6 3.2 0.48 2.21 1.45 89 988.0
20260506145822 12 82 1.6 8.0 0.51 2.21 1.45 88 988.1
20260506145722 12 99 1.6 8.0 0.53 2.21 1.45 89 987.9
20260506145621 12 323 1.6 4.8 0.51 2.18 1.42 88 988.0
20260506145521 12 67 1.6 3.2 0.53 2.18 1.42 88 987.9
20260506145421 12 324 1.6 3.2 0.53 2.18 1.42 88 987.9
20260506145321 12 145 1.6 4.8 0.53 2.16 1.37 88 987.9
20260506145221 12 315 1.6 4.8 0.53 2.16 1.37 88 987.9
20260506145121 12 14 3.2 8.0 0.53 2.16 1.37 88 987.8
20260506145021 12 113 3.2 9.7 0.53 2.16 1.37 88 987.8
20260506144921 12 201 1.6 9.7 0.53 2.16 1.37 88 987.8
20260506144821 12 158 1.6 3.2 0.51 2.13 1.35 88 987.9
20260506144721 12 143 1.6 4.8 0.51 2.13 1.35 88 987.8
20260506144621 12 142 1.6 4.8 0.53 2.13 1.35 88 987.7
20260506144521 12 121 1.6 9.7 0.51 2.11 1.32 88 987.8
20260506144421 12 94 3.2 9.7 0.51 2.11 1.32 88 987.8
20260506144321 12 50 1.6 3.2 0.51 2.11 1.32 89 987.8
20260506144221 12 97 1.6 3.2 0.51 2.11 1.32 89 987.8
20260506144121 12 90 1.6 3.2 0.48 2.06 1.30 88 987.7
20260506144023 12 97 1.6 4.8 0.48 2.06 1.30 88 987.8
20260506143923 12 22 3.2 8.0 0.48 2.06 1.30 88 987.8
20260506143823 12 26 3.2 8.0 0.48 2.06 1.30 88 987.8
20260506143722 12 112 3.2 4.8 0.48 2.06 1.30 88 987.7
20260506143622 12 112 3.2 11.3 0.46 2.03 1.27 88 987.7
20260506143522 12 313 1.6 11.3 0.46 2.03 1.27 89 987.9
20260506143422 12 99 1.6 4.8 0.46 2.03 1.27 89 987.9
20260506143322 12 111 0.0 4.8 0.46 2.03 1.27 89 987.8
20260506143222 12 103 1.6 3.2 0.43 2.01 1.22 89 987.8
20260506143122 12 135 3.2 8.0 0.43 2.01 1.22 89 987.7
20260506143022 12 180 3.2 8.0 0.38 1.98 1.19 88 987.8
20260506142922 12 136 1.6 8.0 0.38 1.98 1.19 88 987.7
20260506142822 12 3 3.2 4.8 0.38 1.98 1.19 88 987.6
20260506142722 12 180 3.2 4.8 0.36 1.96 1.17 88 987.5
20260506142622 12 35 1.6 8.0 0.36 1.96 1.17 89 987.7
20260506142522 12 81 1.6 8.0 0.36 1.96 1.17 89 987.7
20260506142422 12 347 1.6 8.0 0.36 1.96 1.17 89 987.7
20260506142322 13 17 1.6 3.2 0.36 1.93 1.14 89 987.7
20260506142222 13 311 1.6 8.0 0.36 1.93 1.14 88 987.6
20260506142122 13 3 1.6 8.0 0.36 1.93 1.14 88 987.6
20260506142022 13 13 1.6 3.2 0.36 1.93 1.14 88 987.6
20260506141922 13 92 1.6 3.2 0.36 1.93 1.14 88 987.7
20260506141822 13 40 1.6 3.2 0.36 1.93 1.14 88 987.6
20260506141722 13 81 1.6 3.2 0.33 1.88 1.12 88 987.7
20260506141622 13 135 1.6 3.2 0.33 1.88 1.12 88 987.7
20260506141522 13 345 1.6 3.2 0.33 1.88 1.12 88 987.6
20260506141422 13 80 1.6 3.2 0.33 1.88 1.12 87 987.6
20260506141322 13 303 1.6 3.2 0.33 1.88 1.12 88 987.6
20260506141222 13 112 1.6 4.8 0.33 1.88 1.12 88 987.4
20260506141122 13 284 1.6 4.8 0.36 1.88 1.12 88 987.5
20260506141022 13 175 1.6 3.2 0.36 1.85 1.09 88 987.5
20260506140921 13 46 1.6 9.7 0.36 1.85 1.09 88 987.5
20260506140821 13 134 1.6 9.7 0.38 1.85 1.09 88 987.3
20260506140721 13 100 1.6 9.7 0.43 1.85 1.09 88 987.4
20260506140621 13 99 1.6 8.0 0.46 1.85 1.09 89 987.3
20260506140521 13 102 0.0 8.0 0.51 1.85 1.09 89 987.5
20260506140421 13 180 1.6 3.2 0.56 1.83 1.04 88 987.6
20260506140321 13 33 1.6 4.8 0.71 1.83 1.04 88 987.5
20260506140221 13 135 1.6 4.8 0.71 1.80 1.02 89 987.6
20260506140121 13 95 0.0 1.6 0.71 1.78 0.99 88 987.5
20260506140021 13 53 0.0 1.6 0.76 1.75 0.97 88 987.4
20260506135921 13 82 0.0 1.6 0.94 1.75 0.97 88 987.6
20260506135821 13 337 0.0 1.6 0.89 1.70 0.94 87 987.6
20260506135721 13 312 1.6 3.2 0.89 1.68 0.89 87 987.5
20260506135621 13 82 1.6 3.2 0.89 1.68 0.89 87 987.5
20260506135521 13 327 0.0 3.2 0.86 1.65 0.86 87 987.4
20260506135421 13 303 0.0 3.2 0.86 1.65 0.86 86 987.5
20260506135321 13 138 1.6 3.2 0.84 1.63 0.84 86 987.5
20260506135221 13 21 0.0 3.2 0.84 1.63 0.84 87 987.4
20260506135121 13 329 0.0 0.0 0.84 1.63 0.84 88 987.4
20260506135021 13 315 0.0 0.0 0.84 1.63 0.84 88 987.3
20260506134921 13 315 0.0 0.0 0.84 1.63 0.84 88 987.3
20260506134821 13 315 0.0 0.0 0.84 1.63 0.84 88 987.3
20260506134723 13 306 0.0 0.0 0.84 1.63 0.84 88 987.2
20260506134623 13 235 0.0 4.8 0.81 1.60 0.81 89 987.4
20260506134523 13 267 1.6 4.8 0.81 1.60 0.81 88 987.3
20260506134422 13 280 0.0 4.8 0.81 1.60 0.81 89 987.5
20260506134322 13 5 0.0 0.0 0.81 1.60 0.81 90 987.3
20260506134222 13 15 0.0 0.0 0.81 1.60 0.81 90 987.3
20260506134122 13 0 0.0 0.0 0.81 1.60 0.81 90 987.3
20260506134022 13 79 0.0 0.0 0.81 1.60 0.81 90 987.3
20260506133922 13 53 0.0 0.0 0.81 1.60 0.81 90 987.4
20260506133822 13 345 0.0 0.0 0.81 1.60 0.81 90 987.2
20260506133722 13 338 0.0 0.0 0.81 1.60 0.81 90 987.3
20260506133622 13 298 0.0 0.0 0.81 1.60 0.81 90 987.2
20260506133522 13 292 0.0 0.0 0.81 1.60 0.81 90 987.3
20260506133422 13 17 0.0 0.0 0.81 1.60 0.81 90 987.1
20260506133322 13 304 0.0 1.6 0.81 1.60 0.81 89 987.3
20260506133222 13 347 0.0 1.6 0.81 1.60 0.81 90 987.3
20260506133122 13 351 0.0 0.0 0.81 1.60 0.81 90 987.2
20260506133022 13 292 0.0 1.6 0.81 1.60 0.81 89 987.3
20260506132922 13 313 0.0 4.8 0.81 1.60 0.81 89 987.4
20260506132822 13 251 1.6 4.8 0.81 1.60 0.81 89 987.4
20260506132722 13 255 1.6 4.8 0.81 1.60 0.81 89 987.4
20260506132622 13 270 1.6 4.8 0.81 1.60 0.81 89 987.2
20260506132522 13 300 1.6 4.8 0.81 1.60 0.81 89 987.4
20260506132422 13 285 1.6 4.8 0.81 1.60 0.81 89 987.3
20260506132322 13 290 1.6 4.8 0.79 1.55 0.79 89 987.4
20260506132222 13 338 1.6 4.8 0.79 1.55 0.79 89 987.3
20260506132122 13 254 0.0 1.6 0.79 1.55 0.79 89 987.2
20260506132021 13 311 0.0 1.6 0.79 1.55 0.79 90 987.3
20260506131921 13 303 0.0 1.6 0.79 1.55 0.79 89 987.3
20260506131821 13 285 0.0 1.6 0.79 1.55 0.79 89 987.2
20260506131721 13 305 0.0 1.6 0.79 1.55 0.79 89 987.1
20260506131621 13 322 0.0 0.0 0.79 1.55 0.79 89 987.3
20260506131521 13 325 0.0 0.0 0.79 1.55 0.79 89 987.2
20260506131421 13 315 0.0 0.0 0.79 1.55 0.79 89 987.2
20260506131321 13 315 0.0 0.0 0.79 1.55 0.79 89 987.2
20260506131221 13 315 0.0 1.6 0.79 1.55 0.79 88 987.0
20260506131121 13 305 0.0 1.6 0.76 1.52 0.76 87 987.1
20260506131021 13 292 0.0 1.6 0.71 1.50 0.71 87 987.1
20260506130921 13 291 1.6 4.8 0.71 1.50 0.71 86 987.2
20260506130821 13 278 1.6 4.8 0.69 1.47 0.69 86 987.3
20260506130721 13 305 1.6 9.7 0.66 1.45 0.66 85 987.2
20260506130621 13 305 1.6 9.7 0.64 1.42 0.64 84 987.3
20260506130521 14 122 8.0 14.5 0.56 1.35 0.56 82 987.3
20260506130421 15 254 8.0 14.5 0.48 1.27 0.48 83 987.2
20260506130321 15 283 3.2 4.8 0.33 1.12 0.33 84 987.2
20260506130221 15 284 1.6 4.8 0.30 1.09 0.30 83 987.1
20260506130123 16 66 1.6 9.7 0.28 1.04 0.28 82 987.1
20260506130023 16 288 3.2 9.7 0.20 0.99 0.20 77 987.2
20260506125923 16 338 1.6 4.8 0.03 0.81 0.03 74 987.1
20260506125823 16 243 3.2 8.0 0.03 0.81 0.03 73 987.0
20260506125722 16 219 1.6 11.3 0.00 0.79 0.00 72 986.9
20260506125622 16 270 4.8 12.9 0.00 0.79 0.00 69 986.7
20260506125522 16 274 4.8 12.9 0.00 0.79 0.00 67 986.6
20260506125422 16 292 3.2 9.7 0.00 0.79 0.00 67 986.7
20260506125322 16 261 4.8 9.7 0.00 0.79 0.00 67 986.7
20260506125222 16 270 4.8 9.7 0.00 0.79 0.00 66 986.6
20260506125122 16 270 4.8 9.7 0.00 0.79 0.00 66 986.6
20260506125022 16 270 4.8 12.9 0.00 0.79 0.00 65 986.5
20260506124922 16 270 4.8 12.9 0.00 0.79 0.00 67 986.6
20260506124822 16 270 3.2 9.7 0.00 0.79 0.00 67 986.8
20260506124722 16 270 3.2 9.7 0.00 0.79 0.00 67 986.7
20260506124622 16 270 4.8 12.9 0.00 0.79 0.00 67 986.6
20260506124522 16 298 8.0 12.9 0.00 0.79 0.00 67 986.6
20260506124422 16 247 4.8 12.9 0.00 0.79 0.00 67 986.7
20260506124322 16 230 3.2 12.9 0.00 0.79 0.00 67 986.6
20260506124222 17 264 3.2 9.7 0.00 0.79 0.00 67 986.6
20260506124122 17 285 8.0 12.9 0.00 0.79 0.00 65 986.5
20260506124022 17 272 4.8 12.9 0.00 0.79 0.00 64 986.4
20260506123922 17 307 3.2 12.9 0.00 0.79 0.00 66 986.7
20260506123822 17 279 1.6 4.8 0.00 0.79 0.00 66 986.5
20260506123722 17 265 1.6 4.8 0.00 0.79 0.00 65 986.5
20260506123622 17 112 0.0 1.6 0.00 0.79 0.00 65 986.6
20260506123521 17 133 1.6 3.2 0.00 0.79 0.00 65 986.7
20260506123421 17 270 1.6 8.0 0.00 0.79 0.00 64 986.6
20260506123321 17 289 3.2 8.0 0.00 0.79 0.00 64 986.5
20260506123221 18 294 1.6 4.8 0.00 0.79 0.00 63 986.6
20260506123121 18 307 1.6 4.8 0.00 0.79 0.00 63 986.4
20260506123021 18 292 1.6 4.8 0.00 0.79 0.00 62 986.5
20260506122921 18 308 1.6 4.8 0.00 0.79 0.00 61 986.5
20260506122821 18 276 1.6 4.8 0.00 0.79 0.00 61 986.6
20260506122721 18 289 1.6 3.2 0.00 0.79 0.00 61 986.5
20260506122621 18 226 1.6 3.2 0.00 0.79 0.00 61 986.6
20260506122521 18 285 1.6 1.6 0.00 0.79 0.00 62 986.5
20260506122421 18 313 1.6 4.8 0.00 0.79 0.00 61 986.5
20260506122321 17 297 1.6 4.8 0.00 0.79 0.00 62 986.5
20260506122221 18 270 1.6 4.8 0.00 0.79 0.00 62 986.6
20260506122121 18 270 1.6 4.8 0.00 0.79 0.00 62 986.4
20260506122021 18 272 3.2 9.7 0.00 0.79 0.00 61 986.5
20260506121921 18 287 1.6 4.8 0.00 0.79 0.00 61 986.6
20260506121821 18 272 1.6 8.0 0.00 0.79 0.00 60 986.4
20260506121721 18 291 1.6 8.0 0.00 0.79 0.00 61 986.4
20260506121621 18 343 1.6 8.0 0.00 0.79 0.00 60 986.5
20260506121521 18 346 3.2 9.7 0.00 0.79 0.00 59 986.5
20260506121423 18 331 3.2 9.7 0.00 0.79 0.00 59 986.5
20260506121323 18 302 1.6 3.2 0.00 0.79 0.00 58 986.6
20260506121223 18 357 0.0 3.2 0.00 0.79 0.00 59 986.6
20260506121123 18 265 1.6 8.0 0.00 0.79 0.00 60 986.6
20260506121022 18 256 1.6 8.0 0.00 0.79 0.00 59 986.5
20260506120923 18 270 1.6 3.2 0.00 0.79 0.00 59 986.5
20260506120822 17 270 1.6 3.2 0.00 0.79 0.00 61 986.5
20260506120722 17 282 3.2 4.8 0.00 0.79 0.00 61 986.7
20260506120622 17 245 3.2 4.8 0.00 0.79 0.00 62 986.7
20260506120522 17 225 4.8 11.3 0.00 0.79 0.00 62 986.7
20260506120422 17 266 4.8 12.9 0.00 0.79 0.00 61 986.9
20260506120322 18 291 3.2 8.0 0.00 0.79 0.00 62 986.6
20260506120222 18 287 3.2 8.0 0.00 0.79 0.00 62 986.6
20260506120122 18 286 1.6 8.0 0.00 0.79 0.00 62 986.6
20260506120022 17 281 0.0 4.8 0.00 0.79 0.00 61 986.6
20260506115922 17 315 0.0 4.8 0.00 0.79 0.00 62 986.6
20260506115822 17 254 4.8 11.3 0.00 0.79 0.00 63 986.7
20260506115722 17 249 4.8 12.9 0.00 0.79 0.00 62 986.6
20260506115622 17 268 8.0 14.5 0.00 0.79 0.00 62 986.6
20260506115522 17 270 8.0 14.5 0.00 0.79 0.00 62 986.6
20260506115422 18 270 3.2 8.0 0.00 0.79 0.00 64 986.6
20260506115322 18 270 3.2 11.3 0.00 0.79 0.00 63 986.7
20260506115222 18 270 4.8 11.3 0.00 0.79 0.00 62 986.7
20260506115122 18 270 3.2 4.8 0.00 0.79 0.00 62 986.6
20260506115022 18 282 1.6 4.8 0.00 0.79 0.00 61 986.5
20260506114921 18 273 1.6 8.0 0.00 0.79 0.00 61 986.6
20260506114821 17 265 1.6 8.0 0.00 0.79 0.00 63 986.7
20260506114721 17 252 1.6 4.8 0.00 0.79 0.00 64 986.7
20260506114621 17 283 3.2 8.0 0.00 0.81 0.00 64 986.8
20260506114521 17 322 4.8 8.0 0.00 0.81 0.00 64 986.7
20260506114421 18 308 3.2 8.0 0.00 0.81 0.00 63 986.7
20260506114321 18 282 3.2 8.0 0.00 0.81 0.00 61 986.7
20260506114221 18 278 3.2 4.8 0.00 0.81 0.00 61 986.7
20260506114121 18 293 0.0 3.2 0.00 0.81 0.00 60 986.6
20260506114021 17 314 0.0 1.6 0.00 0.81 0.00 62 986.8
20260506113921 17 315 0.0 1.6 0.00 0.81 0.00 64 986.8
20260506113821 17 290 1.6 4.8 0.00 0.81 0.00 64 986.8
20260506113721 17 255 3.2 8.0 0.00 0.81 0.00 64 986.8
20260506113621 17 269 3.2 8.0 0.00 0.81 0.00 65 986.6
20260506113521 17 270 4.8 11.3 0.00 0.81 0.00 64 986.6
20260506113421 17 282 8.0 11.3 0.00 0.81 0.00 64 986.5
20260506113321 17 292 4.8 11.3 0.00 0.81 0.00 64 986.7
20260506113221 17 290 3.2 8.0 0.00 0.81 0.00 62 986.8
20260506113121 17 30 1.6 3.2 0.00 0.81 0.00 63 986.7
20260506113021 17 317 1.6 4.8 0.00 0.81 0.00 63 986.7
20260506112923 17 290 1.6 4.8 0.00 0.81 0.00 63 986.6
20260506112823 17 280 0.0 4.8 0.00 0.81 0.00 65 986.7
20260506112723 17 292 1.6 4.8 0.00 0.81 0.00 66 986.8
20260506112623 17 262 3.2 8.0 0.00 0.81 0.00 65 986.7
20260506112522 17 267 1.6 8.0 0.00 0.81 0.00 64 986.7
20260506112422 17 258 3.2 8.0 0.00 0.81 0.00 64 986.7
20260506112322 18 270 3.2 9.7 0.00 0.81 0.00 63 986.8
20260506112222 18 279 4.8 9.7 0.00 0.81 0.00 63 986.7
20260506112122 18 292 0.0 4.8 0.00 0.81 0.00 63 986.8
20260506112022 18 284 0.0 0.0 0.00 0.81 0.00 62 986.6
20260506111922 17 277 0.0 0.0 0.00 0.81 0.00 62 986.7
20260506111822 17 292 0.0 0.0 0.00 0.81 0.00 63 986.8
20260506111722 17 311 0.0 3.2 0.00 0.81 0.00 63 986.7
20260506111622 17 137 1.6 3.2 0.00 0.81 0.00 63 986.8
20260506111522 17 280 0.0 3.2 0.00 0.81 0.00 65 986.8
20260506111422 17 276 1.6 8.0 0.00 0.81 0.00 65 986.8
20260506111322 17 270 4.8 9.7 0.00 0.81 0.00 65 986.7
20260506111222 17 260 3.2 9.7 0.00 0.81 0.00 65 986.7
20260506111122 17 261 4.8 9.7 0.00 0.81 0.00 65 986.7
20260506111022 17 270 3.2 9.7 0.00 0.81 0.00 65 986.8
20260506110922 17 254 3.2 8.0 0.00 0.81 0.00 65 986.9
20260506110822 17 270 4.8 9.7 0.00 0.81 0.00 66 986.8
20260506110722 17 270 3.2 9.7 0.00 0.81 0.00 67 986.8
20260506110622 17 292 3.2 8.0 0.00 0.81 0.00 67 986.8
20260506110522 17 313 1.6 4.8 0.00 0.81 0.00 66 986.7
20260506110422 17 271 1.6 1.6 0.00 0.81 0.00 66 986.8
20260506110322 16 270 1.6 3.2 0.00 0.81 0.00 67 986.7
20260506110222 16 270 3.2 4.8 0.00 0.81 0.00 66 986.8
20260506110121 16 301 3.2 4.8 0.00 0.81 0.00 68 986.8
20260506110021 16 293 3.2 4.8 0.00 0.81 0.00 66 986.7
20260506105921 16 263 3.2 8.0 0.00 0.81 0.00 66 986.7
20260506105821 16 248 3.2 8.0 0.00 0.81 0.00 67 986.8
20260506105721 16 277 3.2 8.0 0.00 0.81 0.00 68 986.8
20260506105621 16 298 3.2 4.8 0.00 0.81 0.00 67 986.8
20260506105521 16 303 3.2 4.8 0.00 0.81 0.00 68 986.9
20260506105421 16 259 3.2 4.8 0.00 0.81 0.00 68 986.9
20260506105321 16 283 4.8 4.8 0.00 0.81 0.00 68 986.8
20260506105221 16 283 4.8 9.7 0.00 0.81 0.00 68 986.9
20260506105121 16 270 4.8 9.7 0.00 0.81 0.00 67 986.9
20260506105021 16 264 3.2 9.7 0.00 0.81 0.00 69 986.9
20260506104921 16 250 1.6 3.2 0.00 0.81 0.00 71 987.0
20260506104821 16 277 1.6 3.2 0.00 0.81 0.00 71 986.8
20260506104723 16 284 3.2 4.8 0.00 0.81 0.00 70 986.9
20260506104623 16 270 3.2 8.0 0.00 0.81 0.00 68 987.0
20260506104523 16 295 3.2 8.0 0.00 0.81 0.00 69 986.9
20260506104422 16 292 1.6 4.8 0.00 0.81 0.00 70 986.9
20260506104322 16 292 3.2 4.8 0.00 0.81 0.00 70 986.8
20260506104222 16 282 3.2 4.8 0.00 0.81 0.00 69 986.8
20260506104122 16 290 1.6 4.8 0.00 0.81 0.00 69 986.8
20260506104022 16 326 3.2 8.0 0.00 0.81 0.00 68 986.7
20260506103922 16 315 3.2 8.0 0.00 0.81 0.00 69 986.8
20260506103822 16 315 3.2 4.8 0.00 0.81 0.00 69 986.8
20260506103722 16 296 3.2 9.7 0.00 0.81 0.00 67 986.9
20260506103622 16 285 4.8 9.7 0.00 0.81 0.00 67 986.9
20260506103522 16 270 4.8 8.0 0.00 0.81 0.00 66 987.0
20260506103422 17 279 3.2 8.0 0.00 0.81 0.00 64 987.0
20260506103322 17 288 4.8 9.7 0.00 0.81 0.00 63 986.9
20260506103222 17 270 3.2 9.7 0.00 0.81 0.00 62 986.9
20260506103122 17 90 1.6 4.8 0.00 0.81 0.00 64 986.9
20260506103022 17 270 1.6 4.8 0.00 0.81 0.00 64 986.9
20260506102922 17 270 1.6 4.8 0.00 0.81 0.00 63 987.0
20260506102822 17 270 1.6 3.2 0.00 0.81 0.00 63 986.9
20260506102722 17 292 0.0 3.2 0.00 0.81 0.00 63 986.9
20260506102622 17 315 0.0 3.2 0.00 0.81 0.00 63 987.0
20260506102522 17 15 0.0 3.2 0.00 0.81 0.00 65 987.0
20260506102422 17 10 0.0 8.0 0.00 0.81 0.00 65 986.8
20260506102322 17 270 3.2 9.7 0.00 0.81 0.00 64 986.9
20260506102222 17 270 4.8 9.7 0.00 0.81 0.00 64 986.9
20260506102122 17 283 4.8 9.7 0.00 0.81 0.00 65 987.0
20260506102022 17 270 8.0 9.7 0.00 0.81 0.00 65 986.7
20260506101922 17 270 8.0 9.7 0.00 0.81 0.00 65 987.0
20260506101821 17 270 8.0 9.7 0.00 0.81 0.00 64 986.9
20260506101721 17 285 1.6 9.7 0.00 0.81 0.00 65 986.9
20260506101621 17 287 1.6 4.8 0.00 0.81 0.00 66 987.0
20260506101521 17 270 1.6 4.8 0.00 0.81 0.00 66 987.0
20260506101421 17 270 3.2 8.0 0.00 0.81 0.00 67 986.9
20260506101321 17 270 4.8 9.7 0.00 0.81 0.00 66 987.0
20260506101221 17 273 3.2 4.8 0.00 0.81 0.00 66 987.0
20260506101121 17 284 3.2 4.8 0.00 0.81 0.00 67 987.0
20260506101021 17 280 1.6 4.8 0.00 0.81 0.00 67 986.9
20260506100921 17 292 0.0 4.8 0.00 0.81 0.00 67 987.0
20260506100821 17 281 1.6 4.8 0.00 0.81 0.00 67 987.0
20260506100721 16 252 1.6 4.8 0.00 0.81 0.00 67 987.1
20260506100621 16 270 1.6 3.2 0.00 0.81 0.00 69 987.0
20260506100521 16 289 1.6 3.2 0.00 0.81 0.00 70 986.9
20260506100421 16 289 3.2 4.8 0.00 0.81 0.00 70 987.1
20260506100321 16 273 1.6 3.2 0.00 0.81 0.00 68 987.0
20260506100221 16 264 1.6 3.2 0.00 0.81 0.00 69 986.9
20260506100121 16 268 0.0 3.2 0.00 0.81 0.00 69 987.0
20260506100023 16 288 0.0 1.6 0.00 0.81 0.00 69 987.0
20260506095923 16 292 0.0 3.2 0.00 0.81 0.00 70 987.0
20260506095823 16 291 3.2 8.0 0.00 0.81 0.00 70 987.1
20260506095723 16 272 4.8 8.0 0.00 0.81 0.00 71 987.1
20260506095623 16 270 4.8 11.3 0.00 0.81 0.00 71 987.0
20260506095522 16 262 4.8 11.3 0.00 0.81 0.00 70 986.9
20260506095422 16 273 3.2 11.3 0.00 0.81 0.00 71 987.0
20260506095322 16 272 4.8 11.3 0.00 0.81 0.00 71 986.9
20260506095222 15 266 4.8 11.3 0.00 0.81 0.00 71 987.1
20260506095122 15 248 4.8 9.7 0.00 0.81 0.00 72 987.1
20260506095022 15 249 4.8 8.0 0.00 0.81 0.00 71 987.0
20260506094922 15 331 3.2 8.0 0.00 0.81 0.00 71 986.9
20260506094822 15 272 4.8 8.0 0.00 0.81 0.00 72 987.0
20260506094722 15 258 4.8 9.7 0.00 0.81 0.00 72 986.9
20260506094622 15 270 4.8 9.7 0.00 0.81 0.00 72 986.9
20260506094522 15 270 4.8 9.7 0.00 0.81 0.00 72 986.9
20260506094422 15 289 4.8 9.7 0.00 0.81 0.00 72 986.8
20260506094322 15 292 4.8 11.3 0.00 0.81 0.00 73 987.0
20260506094222 16 292 4.8 11.3 0.00 0.81 0.00 72 987.0
20260506094122 16 292 4.8 9.7 0.00 0.81 0.00 72 986.9
20260506094022 16 292 4.8 9.7 0.00 0.81 0.00 73 986.9
20260506093922 16 300 3.2 4.8 0.00 0.81 0.00 74 987.0
20260506093822 16 296 3.2 8.0 0.00 0.81 0.00 74 986.9
20260506093722 16 292 4.8 8.0 0.00 0.81 0.00 73 987.0
20260506093622 16 312 4.8 9.7 0.00 0.81 0.00 73 986.9
20260506093522 16 294 4.8 9.7 0.00 0.81 0.00 72 986.9
20260506093422 16 270 4.8 11.3 0.00 0.81 0.00 73 986.9
20260506093322 16 270 8.0 11.3 0.00 0.81 0.00 72 986.8
20260506093222 17 254 4.8 11.3 0.00 0.81 0.00 71 986.9
20260506093122 17 296 3.2 8.0 0.00 0.81 0.00 71 986.9
20260506093022 17 281 4.8 9.7 0.00 0.81 0.00 69 986.9
20260506092922 17 271 4.8 11.3 0.00 0.81 0.00 67 987.0
20260506092822 17 306 3.2 11.3 0.00 0.81 0.00 68 986.9
20260506092721 17 274 3.2 9.7 0.00 0.81 0.00 68 986.7
20260506092621 17 254 4.8 9.7 0.00 0.81 0.00 68 986.8
20260506092521 17 263 4.8 8.0 0.00 0.81 0.00 68 986.8
20260506092421 17 270 3.2 8.0 0.00 0.81 0.00 67 986.7
20260506092321 17 270 4.8 11.3 0.00 0.81 0.00 67 986.9
20260506092221 17 287 9.7 14.5 0.00 0.81 0.00 66 986.8
20260506092121 17 277 11.3 16.1 0.00 0.81 0.00 65 986.7
20260506092021 17 263 3.2 16.1 0.00 0.81 0.00 68 986.8
20260506091921 16 326 3.2 8.0 0.00 0.81 0.00 68 986.8
20260506091821 16 324 3.2 8.0 0.00 0.81 0.00 68 986.8
20260506091721 16 270 3.2 9.7 0.00 0.81 0.00 67 986.7
20260506091621 16 272 3.2 9.7 0.00 0.81 0.00 67 986.8
20260506091521 16 292 1.6 3.2 0.00 0.81 0.00 67 986.8
20260506091421 16 276 1.6 4.8 0.00 0.81 0.00 67 986.7
20260506091323 16 288 4.8 12.9 0.00 0.81 0.00 68 986.8
20260506091223 16 295 4.8 12.9 0.00 0.81 0.00 69 986.7
20260506091123 16 248 8.0 12.9 0.00 0.81 0.00 68 986.8
20260506091023 16 266 8.0 9.7 0.00 0.81 0.00 68 986.8
20260506090923 16 277 4.8 11.3 0.00 0.81 0.00 69 986.8
20260506090823 16 270 4.8 11.3 0.00 0.81 0.00 68 986.8
20260506090723 16 270 4.8 9.7 0.00 0.81 0.00 68 986.8
20260506090623 16 279 4.8 9.7 0.00 0.81 0.00 68 986.7
20260506090522 16 277 4.8 9.7 0.00 0.81 0.00 68 986.6
20260506090422 16 263 4.8 9.7 0.00 0.81 0.00 68 986.7
20260506090322 16 248 4.8 11.3 0.00 0.81 0.00 68 986.7
20260506090222 16 258 4.8 11.3 0.00 0.81 0.00 68 986.8
20260506090122 16 271 3.2 11.3 0.00 0.81 0.00 69 986.8
20260506090022 16 273 3.2 11.3 0.00 0.81 0.00 69 986.7
20260506085922 16 260 4.8 11.3 0.00 0.81 0.00 68 986.5
20260506085822 16 270 4.8 11.3 0.00 0.81 0.00 68 986.6
20260506085722 16 322 3.2 11.3 0.00 0.81 0.00 69 986.7
20260506085622 16 249 3.2 14.5 0.00 0.81 0.00 69 986.7
20260506085522 16 259 3.2 14.5 0.00 0.81 0.00 69 986.6
20260506085422 16 270 3.2 9.7 0.00 0.81 0.00 69 986.6
20260506085322 16 284 3.2 9.7 0.00 0.81 0.00 69 986.7
20260506085222 16 270 3.2 9.7 0.00 0.81 0.00 70 986.6
20260506085122 16 270 4.8 9.7 0.00 0.81 0.00 69 986.6
20260506085022 17 270 3.2 9.7 0.00 0.81 0.00 68 986.5
20260506084922 17 270 1.6 9.7 0.00 0.81 0.00 69 986.5
20260506084822 17 270 4.8 12.9 0.00 0.81 0.00 68 986.5
20260506084722 17 270 4.8 12.9 0.00 0.81 0.00 68 986.6
20260506084622 17 270 4.8 11.3 0.00 0.81 0.00 69 986.6
20260506084522 17 270 3.2 8.0 0.00 0.81 0.00 69 986.5
20260506084421 17 282 3.2 4.8 0.00 0.81 0.00 69 986.5
20260506084321 17 308 1.6 4.8 0.00 0.81 0.00 70 986.5
20260506084221 16 300 1.6 4.8 0.00 0.81 0.00 69 986.6
20260506084121 16 285 3.2 8.0 0.00 0.81 0.00 70 986.5
20260506084022 16 271 4.8 8.0 0.00 0.81 0.00 71 986.5
20260506083921 16 300 4.8 9.7 0.00 0.81 0.00 71 986.5
20260506083821 16 270 4.8 9.7 0.00 0.81 0.00 71 986.4
20260506083721 15 253 8.0 11.3 0.00 0.81 0.00 71 986.4
20260506083621 15 280 3.2 8.0 0.00 0.81 0.00 72 986.4
20260506083521 15 287 3.2 8.0 0.00 0.81 0.00 72 986.4
20260506083421 15 256 3.2 11.3 0.00 0.81 0.00 73 986.4
20260506083321 15 269 8.0 11.3 0.00 0.81 0.00 72 986.3
20260506083221 16 291 4.8 9.7 0.00 0.81 0.00 72 986.3
20260506083121 16 271 3.2 9.7 0.00 0.81 0.00 71 986.3
20260506083021 16 284 3.2 9.7 0.00 0.81 0.00 71 986.4
20260506082923 16 265 4.8 11.3 0.00 0.81 0.00 71 986.4
20260506082823 16 290 4.8 11.3 0.00 0.81 0.00 70 986.3
20260506082723 16 277 3.2 11.3 0.00 0.81 0.00 70 986.2
20260506082623 16 292 4.8 11.3 0.00 0.81 0.00 71 986.4
20260506082523 16 274 4.8 11.3 0.00 0.81 0.00 70 986.3
20260506082423 16 272 8.0 12.9 0.00 0.81 0.00 71 986.2
20260506082323 16 292 8.0 12.9 0.00 0.81 0.00 71 986.3
20260506082223 16 280 8.0 12.9 0.00 0.81 0.00 71 986.3
20260506082123 16 295 4.8 12.9 0.00 0.81 0.00 72 986.2
20260506082023 16 313 9.7 12.9 0.00 0.81 0.00 72 986.1
20260506081922 16 285 4.8 12.9 0.00 0.81 0.00 71 986.3
20260506081822 16 254 8.0 12.9 0.00 0.81 0.00 71 986.3
20260506081722 16 265 8.0 12.9 0.00 0.81 0.00 71 986.2
20260506081622 15 270 3.2 8.0 0.00 0.81 0.00 71 986.4
20260506081522 15 270 3.2 8.0 0.00 0.81 0.00 71 986.3
20260506081422 15 270 3.2 9.7 0.00 0.81 0.00 71 986.2
20260506081322 15 281 3.2 9.7 0.00 0.81 0.00 72 986.3
20260506081222 15 279 4.8 9.7 0.00 0.81 0.00 72 986.3
20260506081122 15 292 8.0 11.3 0.00 0.84 0.00 71 986.3
20260506081022 16 280 9.7 12.9 0.00 0.84 0.00 71 986.4
20260506080922 16 270 8.0 12.9 0.00 0.84 0.00 70 986.4
20260506080822 16 270 4.8 11.3 0.00 0.84 0.00 71 986.3
20260506080722 16 315 3.2 8.0 0.00 0.84 0.00 70 986.3
20260506080622 16 327 3.2 8.0 0.00 0.84 0.00 69 986.3
20260506080522 16 288 3.2 8.0 0.00 0.84 0.00 68 986.2
20260506080422 16 292 1.6 3.2 0.00 0.84 0.00 67 986.4
20260506080322 16 25 1.6 8.0 0.00 0.84 0.00 68 986.3
20260506080222 16 307 3.2 9.7 0.00 0.84 0.00 68 986.3
20260506080122 16 330 3.2 9.7 0.00 0.84 0.00 69 986.4
20260506073523 15 278 8.0 12.9 0.00 0.84 0.00 71 986.4
20260506073423 15 292 3.2 12.9 0.00 0.84 0.00 72 986.2
20260506073322 15 292 3.2 8.0 0.00 0.84 0.00 72 986.2
20260506073222 15 272 4.8 9.7 0.00 0.84 0.00 72 986.0
20260506073122 16 270 4.8 9.7 0.00 0.84 0.00 71 986.1
20260506073022 16 270 4.8 8.0 0.00 0.84 0.00 70 986.2
20260506072922 16 270 3.2 8.0 0.00 0.84 0.00 70 986.1
20260506072822 16 316 1.6 3.2 0.00 0.84 0.00 69 986.1
20260506072722 16 299 1.6 3.2 0.00 0.84 0.00 69 986.1
20260506072622 17 275 0.0 3.2 0.00 0.84 0.00 69 986.2
20260506072522 17 292 1.6 4.8 0.00 0.84 0.00 68 986.3
20260506072422 17 281 1.6 4.8 0.00 0.84 0.00 66 986.2
20260506072322 17 57 0.0 1.6 0.00 0.84 0.00 66 986.2
20260506072222 17 105 0.0 1.6 0.00 0.84 0.00 64 986.3
20260506072122 17 50 0.0 1.6 0.00 0.84 0.00 64 986.3
20260506072022 17 336 0.0 1.6 0.00 0.84 0.00 65 986.4
20260506071922 17 134 0.0 1.6 0.00 0.84 0.00 64 986.2
20260506071822 17 247 0.0 1.6 0.00 0.84 0.00 66 986.2
20260506071722 17 256 0.0 1.6 0.00 0.84 0.00 65 986.2
20260506071622 17 75 0.0 1.6 0.00 0.84 0.00 65 986.2
20260506071522 16 115 0.0 3.2 0.00 0.84 0.00 66 986.3
20260506071422 16 299 0.0 3.2 0.00 0.84 0.00 66 986.2
20260506071322 16 336 0.0 1.6 0.00 0.84 0.00 67 986.2
20260506071221 16 299 0.0 1.6 0.00 0.84 0.00 66 986.3
20260506071121 16 22 0.0 0.0 0.00 0.84 0.00 66 986.2
20260506071021 16 355 0.0 0.0 0.00 0.84 0.00 66 986.2
20260506070921 16 62 0.0 1.6 0.00 0.84 0.00 67 986.3
20260506070821 16 94 0.0 1.6 0.00 0.84 0.00 68 986.3
20260506070721 16 27 0.0 1.6 0.00 0.84 0.00 68 986.3
20260506070621 16 74 0.0 3.2 0.00 0.84 0.00 68 986.3
20260506070521 16 276 0.0 4.8 0.00 0.84 0.00 68 986.1
20260506070421 16 245 0.0 4.8 0.00 0.84 0.00 67 986.3
20260506070321 16 255 0.0 1.6 0.00 0.84 0.00 69 986.3
20260506070221 16 325 0.0 1.6 0.00 0.84 0.00 69 986.2
20260506070121 16 338 0.0 0.0 0.00 0.84 0.00 68 986.0
20260506062421 15 241 0.0 1.6 0.00 0.84 0.00 73 986.0
20260506062321 15 130 0.0 1.6 0.00 0.84 0.00 73 986.1
20260506062221 15 129 0.0 1.6 0.00 0.84 0.00 75 986.1
20260506062121 15 86 0.0 0.0 0.00 0.84 0.00 75 986.3
20260506062021 15 112 0.0 1.6 0.00 0.84 0.00 76 986.3
20260506061921 14 112 0.0 1.6 0.00 0.84 0.00 75 986.2
20260506061821 14 247 0.0 1.6 0.00 0.84 0.00 76 986.3
20260506061721 13 64 0.0 1.6 0.00 0.84 0.00 80 986.2
20260506061621 13 68 0.0 0.0 0.00 0.84 0.00 81 986.2
20260506061521 13 68 0.0 0.0 0.00 0.84 0.00 81 986.2
20260506061421 13 68 0.0 0.0 0.00 0.84 0.00 81 986.2
20260506061321 13 68 0.0 0.0 0.00 0.84 0.00 81 986.2
20260506061221 13 68 0.0 0.0 0.00 0.84 0.00 81 986.1
20260506061121 13 77 0.0 0.0 0.00 0.84 0.00 81 986.2
20260506061023 13 8 0.0 0.0 0.00 0.84 0.00 81 986.2
20260506060923 13 338 0.0 0.0 0.00 0.84 0.00 81 986.1
20260506060823 13 338 0.0 0.0 0.00 0.84 0.00 81 986.3
20260506060723 13 338 0.0 0.0 0.00 0.84 0.00 81 986.1
20260506060623 13 306 0.0 0.0 0.00 0.84 0.00 81 986.2
20260506060523 12 272 0.0 0.0 0.00 0.84 0.00 83 986.2
20260506060422 12 270 0.0 0.0 0.00 0.84 0.00 83 986.2
20260506060322 12 270 0.0 0.0 0.00 0.84 0.00 83 986.2
20260506060222 12 270 0.0 0.0 0.00 0.84 0.00 83 986.1
20260506060122 12 270 0.0 0.0 0.00 0.84 0.00 83 986.1
20260506051322 10 292 0.0 0.0 0.00 0.84 0.00 90 986.4
20260506051222 10 292 0.0 0.0 0.00 0.84 0.00 90 986.4
20260506051122 10 292 0.0 0.0 0.00 0.84 0.00 90 986.4
20260506051022 10 292 0.0 0.0 0.00 0.84 0.00 89 986.5
20260506050922 10 278 0.0 0.0 0.00 0.84 0.00 89 986.4
20260506050822 10 284 0.0 0.0 0.00 0.84 0.00 90 986.4
20260506050722 10 212 0.0 0.0 0.00 0.84 0.00 90 986.5
20260506050622 10 135 0.0 0.0 0.00 0.84 0.00 90 986.5
20260506050522 10 197 0.0 0.0 0.00 0.84 0.00 90 986.4
20260506050422 10 265 0.0 0.0 0.00 0.84 0.00 89 986.4
20260506050322 10 270 0.0 0.0 0.00 0.84 0.00 89 986.4
20260506050222 10 270 0.0 0.0 0.00 0.84 0.00 89 986.4
20260506050122 10 270 0.0 0.0 0.00 0.84 0.00 89 986.4
20260506045121 10 281 0.0 1.6 0.00 0.84 0.00 89 986.4
20260506045021 10 292 0.0 3.2 0.00 0.84 0.00 89 986.5
20260506044921 10 277 0.0 3.2 0.00 0.84 0.00 89 986.5
20260506044821 10 333 0.0 3.2 0.00 0.84 0.00 89 986.3
20260506044721 10 338 0.0 0.0 0.00 0.84 0.00 89 986.3
20260506044621 10 338 0.0 0.0 0.00 0.84 0.00 89 986.3
20260506044521 10 338 0.0 0.0 0.00 0.84 0.00 90 986.3
20260506044423 10 338 0.0 0.0 0.00 0.84 0.00 89 986.5
20260506044323 10 338 0.0 0.0 0.00 0.84 0.00 88 986.5
20260506044223 10 338 0.0 0.0 0.00 0.84 0.00 88 986.5
20260506044123 10 338 0.0 0.0 0.00 0.84 0.00 88 986.6
20260506044023 10 338 0.0 0.0 0.00 0.84 0.00 88 986.5
20260506043923 10 338 0.0 0.0 0.00 0.84 0.00 88 986.5
20260506043822 10 338 0.0 0.0 0.00 0.84 0.00 88 986.5
20260506043722 10 353 0.0 0.0 0.00 0.84 0.00 87 986.5
20260506043622 11 24 0.0 0.0 0.00 0.84 0.00 87 986.4
20260506043522 11 135 0.0 0.0 0.00 0.84 0.00 86 986.5
20260506043422 11 135 0.0 0.0 0.00 0.84 0.00 86 986.5
20260506043322 11 135 0.0 1.6 0.00 0.84 0.00 87 986.5
20260506043222 11 135 0.0 1.6 0.00 0.84 0.00 87 986.5
20260506043122 11 135 0.0 1.6 0.00 0.84 0.00 87 986.5
20260506043022 11 145 0.0 1.6 0.00 0.84 0.00 87 986.5
20260506042922 10 158 1.6 3.2 0.00 0.84 0.00 87 986.5
20260506042822 10 151 1.6 3.2 0.00 0.84 0.00 87 986.5
20260506042722 10 127 1.6 3.2 0.00 0.84 0.00 88 986.6
20260506042622 10 127 1.6 3.2 0.00 0.84 0.00 88 986.6
20260506042522 10 135 1.6 3.2 0.00 0.84 0.00 89 986.4
20260506042422 10 135 0.0 3.2 0.00 0.84 0.00 89 986.6
20260506042322 10 122 0.0 1.6 0.00 0.84 0.00 89 986.7
20260506042222 10 122 0.0 1.6 0.00 0.84 0.00 89 986.7
20260506042122 10 135 0.0 3.2 0.00 0.84 0.00 89 986.7
20260506042022 10 135 0.0 3.2 0.00 0.84 0.00 89 986.6
20260506041922 10 186 0.0 1.6 0.00 0.84 0.00 89 986.5
20260506041822 10 236 0.0 1.6 0.00 0.84 0.00 89 986.5
20260506041722 10 223 0.0 1.6 0.00 0.84 0.00 89 986.5
20260506041622 10 239 0.0 1.6 0.00 0.84 0.00 89 986.6
20260506041521 10 270 0.0 1.6 0.00 0.84 0.00 87 986.8
20260506041421 10 270 1.6 1.6 0.00 0.84 0.00 87 986.7
20260506041321 10 194 0.0 1.6 0.00 0.84 0.00 88 986.6
20260506041221 10 180 0.0 0.0 0.00 0.84 0.00 88 986.4
20260506041121 10 180 0.0 0.0 0.00 0.84 0.00 88 986.5
20260506041021 10 180 0.0 1.6 0.00 0.84 0.00 88 986.5
20260506040921 10 180 0.0 1.6 0.00 0.84 0.00 88 986.4
20260506040821 11 180 0.0 0.0 0.00 0.84 0.00 88 986.5
20260506040721 11 180 0.0 0.0 0.00 0.84 0.00 88 986.3
20260506040621 11 180 0.0 0.0 0.00 0.84 0.00 88 986.3
20260506040521 11 180 0.0 0.0 0.00 0.84 0.00 88 986.5
20260506040421 11 180 0.0 0.0 0.00 0.84 0.00 88 986.5
20260506040321 11 180 0.0 0.0 0.00 0.84 0.00 88 986.5
20260506040221 11 180 0.0 0.0 0.00 0.84 0.00 87 986.4
20260506040121 11 180 0.0 1.6 0.00 0.84 0.00 87 986.4
20260506040021 11 180 0.0 1.6 0.00 0.84 0.00 87 986.5
20260506035923 11 180 0.0 1.6 0.00 0.84 0.00 87 986.5
20260506035823 11 180 0.0 1.6 0.00 0.84 0.00 87 986.4
20260506035723 10 200 0.0 1.6 0.00 0.84 0.00 86 986.4
20260506035623 10 291 0.0 1.6 0.00 0.84 0.00 85 986.4
20260506035523 10 292 0.0 0.0 0.00 0.84 0.00 85 986.4
20260506035423 10 292 0.0 0.0 0.00 0.84 0.00 85 986.4
20260506035323 10 292 0.0 0.0 0.00 0.84 0.00 85 986.3
20260506035222 11 292 0.0 1.6 0.00 0.84 0.00 84 986.5
20260506035122 11 298 1.6 1.6 0.00 0.84 0.00 84 986.4
20260506035022 11 303 1.6 1.6 0.00 0.84 0.00 83 986.4
20260506034922 11 290 0.0 1.6 0.00 0.84 0.00 82 986.4
20260506034822 11 249 0.0 1.6 0.00 0.84 0.00 82 986.5
20260506034722 12 118 0.0 0.0 0.00 0.84 0.00 81 986.6
20260506034622 12 135 0.0 0.0 0.00 0.84 0.00 81 986.4
20260506034522 12 135 0.0 0.0 0.00 0.84 0.00 81 986.5
20260506034422 12 135 0.0 3.2 0.00 0.84 0.00 80 986.4
20260506034322 12 135 1.6 3.2 0.00 0.84 0.00 80 986.3
20260506034222 12 135 1.6 3.2 0.00 0.84 0.00 81 986.4
20260506034122 12 135 1.6 3.2 0.00 0.84 0.00 81 986.4
20260506034022 12 127 0.0 3.2 0.00 0.84 0.00 80 986.4
20260506033922 12 112 0.0 3.2 0.00 0.84 0.00 80 986.5
20260506033822 12 112 1.6 3.2 0.00 0.84 0.00 81 986.4
20260506033722 12 112 0.0 0.0 0.00 0.84 0.00 81 986.4
20260506033622 12 122 0.0 3.2 0.00 0.84 0.00 81 986.4
20260506033522 12 142 1.6 3.2 0.00 0.84 0.00 81 986.5
20260506033422 12 144 1.6 3.2 0.00 0.84 0.00 83 986.4
20260506033322 12 130 1.6 3.2 0.00 0.84 0.00 82 986.4
20260506033222 12 151 1.6 4.8 0.00 0.84 0.00 82 986.3
20260506033122 12 157 1.6 4.8 0.00 0.84 0.00 81 986.4
20260506033022 12 104 1.6 4.8 0.00 0.84 0.00 80 986.4
20260506032921 12 118 0.0 1.6 0.00 0.84 0.00 80 986.4
20260506032821 12 142 1.6 1.6 0.00 0.84 0.00 80 986.4
20260506032721 12 145 1.6 1.6 0.00 0.84 0.00 80 986.5
20260506032621 12 112 1.6 3.2 0.00 0.84 0.00 81 986.6
20260506032521 12 127 1.6 3.2 0.00 0.84 0.00 80 986.5
20260506032421 12 112 0.0 3.2 0.00 0.84 0.00 81 986.5
20260506032321 12 112 0.0 1.6 0.00 0.84 0.00 81 986.5
20260506032221 12 112 0.0 3.2 0.00 0.84 0.00 82 986.5
20260506032121 12 127 1.6 3.2 0.00 0.84 0.00 81 986.5
20260506032021 12 120 1.6 1.6 0.00 0.84 0.00 81 986.5
20260506031921 12 135 1.6 1.6 0.00 0.84 0.00 82 986.4
20260506031821 12 135 1.6 3.2 0.00 0.84 0.00 82 986.4
20260506031721 12 119 1.6 3.2 0.00 0.84 0.00 82 986.5
20260506031621 12 127 1.6 1.6 0.00 0.84 0.00 83 986.4
20260506031521 12 120 1.6 1.6 0.00 0.84 0.00 83 986.5
20260506031423 12 135 0.0 1.6 0.00 0.84 0.00 82 986.6
20260506031323 12 139 0.0 3.2 0.00 0.84 0.00 82 986.5
20260506031223 12 141 1.6 3.2 0.00 0.84 0.00 82 986.6
20260506031123 12 112 1.6 3.2 0.00 0.84 0.00 81 986.6
20260506031023 12 125 0.0 1.6 0.00 0.84 0.00 80 986.6
20260506030923 12 119 0.0 3.2 0.00 0.84 0.00 79 986.5
20260506030823 12 112 0.0 3.2 0.00 0.84 0.00 79 986.6
20260506030722 12 112 0.0 1.6 0.00 0.84 0.00 80 986.5
20260506030622 12 126 1.6 3.2 0.00 0.84 0.00 79 986.6
20260506030522 12 119 1.6 3.2 0.00 0.84 0.00 81 986.6
20260506030422 12 135 1.6 3.2 0.00 0.84 0.00 81 986.6
20260506030322 12 129 1.6 3.2 0.00 0.84 0.00 82 986.5
20260506030222 12 112 0.0 0.0 0.00 0.84 0.00 82 986.8
20260506030122 12 130 0.0 1.6 0.00 0.84 0.00 82 986.7
20260506030022 12 126 0.0 1.6 0.00 0.84 0.00 82 986.7
20260506025922 12 85 0.0 1.6 0.00 0.84 0.00 81 986.6
20260506025822 12 75 0.0 1.6 0.00 0.84 0.00 80 986.8
20260506025722 12 116 0.0 1.6 0.00 0.84 0.00 80 986.8
20260506025622 12 135 0.0 0.0 0.00 0.84 0.00 79 986.7
20260506025522 12 135 0.0 1.6 0.00 0.84 0.00 79 986.8
20260506025422 12 125 0.0 1.6 0.00 0.84 0.00 79 986.8
20260506025322 12 106 0.0 3.2 0.00 0.84 0.00 79 986.9
20260506025222 12 90 0.0 3.2 0.00 0.84 0.00 79 986.8
20260506025122 12 100 0.0 3.2 0.00 0.84 0.00 79 986.8
20260506025022 12 112 0.0 0.0 0.00 0.84 0.00 79 987.0
20260506024922 12 112 0.0 1.6 0.00 0.84 0.00 79 986.9
20260506024822 12 112 0.0 1.6 0.00 0.84 0.00 79 986.8
20260506024722 12 112 0.0 1.6 0.00 0.84 0.00 80 986.8
20260506024622 12 112 0.0 0.0 0.00 0.84 0.00 81 987.0
20260506024522 12 112 0.0 0.0 0.00 0.84 0.00 80 986.9
20260506024422 12 112 0.0 0.0 0.00 0.84 0.00 79 986.9
20260506024322 12 112 0.0 1.6 0.00 0.84 0.00 79 986.8
20260506024221 13 99 0.0 1.6 0.00 0.84 0.00 79 986.7
20260506024121 13 119 0.0 1.6 0.00 0.84 0.00 79 986.8
20260506024021 13 109 1.6 1.6 0.00 0.84 0.00 79 987.0
20260506023921 13 105 0.0 1.6 0.00 0.84 0.00 79 986.9
20260506023821 13 145 1.6 1.6 0.00 0.84 0.00 77 987.1
20260506023721 13 115 0.0 1.6 0.00 0.84 0.00 78 987.0
20260506023621 13 112 0.0 1.6 0.00 0.84 0.00 77 987.0
20260506023521 13 134 0.0 1.6 0.00 0.84 0.00 77 987.0
20260506023421 13 270 0.0 0.0 0.00 0.84 0.00 76 987.0
20260506023321 13 133 0.0 1.6 0.00 0.84 0.00 76 987.0
20260506023221 13 138 0.0 1.6 0.00 0.84 0.00 75 987.2
20260506023121 13 156 1.6 1.6 0.00 0.84 0.00 75 987.3
20260506023021 13 112 1.6 3.2 0.00 0.84 0.00 74 987.1
20260506022923 13 138 0.0 4.8 0.00 0.84 0.00 75 987.1
20260506022823 13 112 0.0 1.6 0.00 0.84 0.00 76 987.1
20260506022723 13 112 1.6 1.6 0.00 0.84 0.00 76 987.0
20260506022623 13 112 0.0 1.6 0.00 0.84 0.00 76 987.1
20260506022523 13 266 0.0 3.2 0.00 0.84 0.00 76 987.0
20260506022423 13 146 1.6 3.2 0.00 0.84 0.00 76 987.1
20260506022323 13 275 0.0 3.2 0.00 0.84 0.00 77 987.1
20260506022222 13 112 1.6 8.0 0.00 0.84 0.00 75 987.2
20260506022122 13 129 0.0 8.0 0.00 0.84 0.00 76 987.2
20260506022022 13 133 0.0 1.6 0.00 0.84 0.00 75 987.1
20260506021922 13 113 0.0 1.6 0.00 0.84 0.00 76 987.2
20260506021822 13 292 0.0 1.6 0.00 0.84 0.00 76 987.2
20260506021722 13 140 0.0 3.2 0.00 0.84 0.00 75 987.1
20260506021622 13 135 1.6 3.2 0.00 0.84 0.00 75 987.1
20260506021522 13 127 1.6 3.2 0.00 0.84 0.00 75 987.1
20260506021422 13 98 1.6 4.8 0.00 0.84 0.00 75 987.1
20260506021322 13 85 0.0 4.8 0.00 0.84 0.00 75 987.0
20260506021222 13 73 0.0 0.0 0.00 0.84 0.00 75 987.1
20260506021122 13 112 0.0 1.6 0.00 0.84 0.00 75 987.2
20260506021022 13 94 1.6 4.8 0.00 0.84 0.00 75 987.1
20260506020922 13 94 1.6 4.8 0.00 0.84 0.00 76 987.1
20260506020822 13 116 1.6 1.6 0.00 0.84 0.00 75 987.0
20260506020722 13 236 1.6 3.2 0.00 0.84 0.00 75 987.2
20260506020622 13 140 1.6 4.8 0.00 0.84 0.00 75 987.3
20260506020522 13 155 1.6 4.8 0.00 0.84 0.00 75 987.2
20260506020422 13 245 1.6 4.8 0.00 0.84 0.00 76 987.3
20260506020322 13 129 1.6 4.8 0.00 0.84 0.00 76 987.2
20260506020222 13 85 0.0 1.6 0.00 0.84 0.00 76 987.2
20260506020122 13 68 0.0 0.0 0.00 0.84 0.00 76 987.3
20260506020022 13 99 0.0 1.6 0.00 0.84 0.00 76 987.3
20260506015922 13 90 0.0 1.6 0.00 0.84 0.00 76 987.4
20260506015822 13 177 0.0 1.6 0.00 0.84 0.00 75 987.2
20260506015722 13 112 0.0 1.6 0.00 0.84 0.00 75 987.2
20260506015621 13 123 0.0 1.6 0.00 0.84 0.00 75 987.3
20260506015521 13 78 0.0 3.2 0.00 0.84 0.00 75 987.2
20260506015421 13 143 0.0 3.2 0.00 0.84 0.00 75 987.3
20260506015321 13 95 0.0 1.6 0.00 0.84 0.00 75 987.3
20260506015221 13 92 0.0 3.2 0.00 0.84 0.00 75 987.2
20260506015121 13 112 1.6 3.2 0.00 0.84 0.00 74 987.2
20260506015021 13 112 1.6 4.8 0.00 0.84 0.00 75 987.2
20260506014921 13 112 0.0 4.8 0.00 0.84 0.00 75 987.2
20260506014821 13 64 0.0 3.2 0.00 0.84 0.00 74 987.2
20260506014721 13 87 1.6 3.2 0.00 0.84 0.00 74 987.1
20260506014621 13 133 1.6 3.2 0.00 0.84 0.00 75 987.2
20260506014521 13 137 1.6 3.2 0.00 0.84 0.00 75 987.1
20260506014421 13 246 0.0 3.2 0.00 0.84 0.00 75 987.1
20260506014321 13 112 1.6 3.2 0.00 0.84 0.00 75 987.2
20260506014221 13 111 1.6 4.8 0.00 0.84 0.00 75 987.1
20260506014121 13 343 1.6 4.8 0.00 0.84 0.00 75 987.2
20260506014021 13 87 1.6 4.8 0.00 0.84 0.00 76 987.2
20260506013923 13 112 0.0 1.6 0.00 0.84 0.00 76 987.0
20260506013823 13 124 0.0 3.2 0.00 0.84 0.00 75 987.1
20260506013723 13 114 1.6 3.2 0.00 0.84 0.00 75 987.2
20260506013623 13 112 1.6 3.2 0.00 0.84 0.00 75 987.2
20260506013523 13 243 1.6 3.2 0.00 0.84 0.00 75 987.2
20260506013423 13 270 1.6 3.2 0.00 0.84 0.00 76 987.2
20260506013323 13 90 1.6 3.2 0.00 0.84 0.00 77 987.1
20260506013223 13 98 1.6 3.2 0.00 0.84 0.00 77 987.1
20260506013122 13 135 1.6 1.6 0.00 0.84 0.00 78 987.2
20260506013022 13 135 1.6 1.6 0.00 0.84 0.00 78 987.2
20260506012922 13 135 1.6 1.6 0.00 0.84 0.00 78 987.2
20260506012822 13 132 0.0 4.8 0.00 0.84 0.00 78 987.3
20260506012722 13 131 1.6 4.8 0.00 0.84 0.00 78 987.3
20260506012622 13 142 1.6 3.2 0.00 0.84 0.00 78 987.2
20260506012522 13 135 1.6 3.2 0.00 0.84 0.00 77 987.2
20260506012422 13 83 0.0 3.2 0.00 0.84 0.00 77 987.1
20260506012322 13 220 1.6 4.8 0.00 0.84 0.00 76 987.1
20260506012222 13 135 1.6 8.0 0.00 0.84 0.00 76 987.1
20260506012122 13 135 1.6 8.0 0.00 0.84 0.00 76 987.1
20260506012022 13 54 1.6 4.8 0.00 0.84 0.00 76 987.2
20260506011922 13 142 1.6 4.8 0.00 0.84 0.00 76 987.2
20260506011822 13 111 1.6 4.8 0.00 0.84 0.00 77 987.3
20260506011722 13 90 1.6 4.8 0.00 0.84 0.00 78 987.3
20260506011622 13 122 1.6 3.2 0.00 0.84 0.00 78 987.1
20260506011522 13 179 1.6 4.8 0.00 0.84 0.00 78 987.1
20260506011422 13 161 1.6 4.8 0.00 0.84 0.00 79 987.2
20260506011322 13 141 1.6 3.2 0.00 0.84 0.00 79 987.3
20260506011221 13 116 0.0 3.2 0.00 0.84 0.00 79 987.1
20260506011121 13 105 0.0 1.6 0.00 0.84 0.00 79 987.2
20260506011021 13 137 1.6 1.6 0.00 0.84 0.00 79 987.3
20260506010921 13 121 1.6 4.8 0.00 0.84 0.00 79 987.3
20260506010821 13 108 1.6 4.8 0.00 0.84 0.00 79 987.3
20260506010721 13 137 1.6 3.2 0.00 0.84 0.00 79 987.4
20260506010621 13 112 1.6 3.2 0.00 0.84 0.00 79 987.4
20260506010521 13 98 1.6 3.2 0.00 0.84 0.00 79 987.5
20260506010421 13 117 0.0 3.2 0.00 0.84 0.00 80 987.5
20260506010321 13 124 0.0 1.6 0.00 0.84 0.00 79 987.5
20260506010221 13 128 0.0 1.6 0.00 0.84 0.00 79 987.4
20260506010121 13 150 0.0 1.6 0.00 0.84 0.00 79 987.3
20260506010021 13 118 0.0 1.6 0.00 0.84 0.00 79 987.4
20260506005921 13 115 0.0 1.6 0.00 0.84 0.00 79 987.3
20260506005821 13 135 0.0 1.6 0.00 0.84 0.00 79 987.4
20260506005721 13 136 0.0 4.8 0.00 0.84 0.00 78 987.4
20260506005621 13 246 1.6 4.8 0.00 0.84 0.00 78 987.3
20260506005523 13 119 1.6 3.2 0.00 0.84 0.00 78 987.3
20260506005423 13 116 1.6 3.2 0.00 0.84 0.00 78 987.3
20260506005323 13 123 1.6 3.2 0.00 0.84 0.00 78 987.2
20260506005223 13 135 1.6 3.2 0.00 0.84 0.00 77 987.4
20260506005123 13 103 0.0 3.2 0.00 0.84 0.00 78 987.3
20260506005023 13 87 1.6 3.2 0.00 0.84 0.00 77 987.3
20260506004923 13 114 0.0 4.8 0.00 0.84 0.00 77 987.3
20260506004822 13 171 1.6 4.8 0.00 0.84 0.00 76 987.3
20260506004722 13 135 1.6 8.0 0.00 0.84 0.00 77 987.4
20260506004622 13 125 1.6 8.0 0.00 0.84 0.00 77 987.3
20260506004522 13 112 1.6 4.8 0.00 0.84 0.00 77 987.2
20260506004422 13 122 1.6 4.8 0.00 0.84 0.00 77 987.4
20260506004322 13 155 1.6 3.2 0.00 0.84 0.00 77 987.4
20260506004222 13 347 1.6 8.0 0.00 0.84 0.00 77 987.4
20260506004122 13 37 3.2 8.0 0.00 0.84 0.00 77 987.4
20260506004022 13 155 1.6 8.0 0.00 0.84 0.00 79 987.3
20260506003922 13 112 0.0 3.2 0.00 0.84 0.00 78 987.3
20260506003822 13 131 1.6 8.0 0.00 0.84 0.00 77 987.5
20260506003722 13 112 1.6 8.0 0.00 0.84 0.00 78 987.5
20260506003622 13 125 1.6 4.8 0.00 0.84 0.00 78 987.4
20260506003522 13 203 1.6 3.2 0.00 0.84 0.00 78 987.5
20260506003422 13 118 1.6 3.2 0.00 0.84 0.00 79 987.5
20260506003322 13 97 1.6 3.2 0.00 0.84 0.00 79 987.5
20260506003222 13 96 1.6 3.2 0.00 0.84 0.00 79 987.5
20260506003122 13 103 1.6 4.8 0.00 0.84 0.00 78 987.5
20260506003022 13 52 1.6 4.8 0.00 0.84 0.00 78 987.5
20260506002922 13 234 1.6 3.2 0.00 0.84 0.00 79 987.5
20260506002822 13 122 1.6 8.0 0.00 0.84 0.00 79 987.7
20260506002721 13 118 1.6 8.0 0.00 0.84 0.00 79 987.8
20260506002621 13 122 0.0 3.2 0.00 0.84 0.00 79 987.8
20260506002521 13 113 0.0 1.6 0.00 0.84 0.00 79 987.6
20260506002421 13 125 0.0 3.2 0.00 0.84 0.00 79 987.8
20260506002321 13 140 1.6 3.2 0.00 0.84 0.00 79 987.7
20260506002221 13 138 1.6 3.2 0.00 0.84 0.00 80 987.7
20260506002121 12 133 1.6 3.2 0.00 0.84 0.00 81 987.8
20260506002021 12 147 1.6 4.8 0.00 0.84 0.00 82 987.8
20260506001921 12 135 1.6 4.8 0.00 0.84 0.00 83 987.9
20260506001821 12 112 1.6 4.8 0.00 0.84 0.00 83 987.9
20260506001721 12 119 1.6 4.8 0.00 0.84 0.00 84 987.9
20260506001621 12 99 0.0 1.6 0.00 0.84 0.00 84 987.9
20260506001521 12 112 0.0 1.6 0.00 0.84 0.00 84 987.9
20260506001423 12 112 0.0 1.6 0.00 0.84 0.00 84 987.9
20260506001323 12 112 0.0 0.0 0.00 0.84 0.00 84 988.0
20260506001223 12 119 0.0 0.0 0.00 0.84 0.00 84 987.9
20260506001123 12 135 0.0 0.0 0.00 0.84 0.00 85 988.1
20260506001023 12 135 0.0 0.0 0.00 0.84 0.00 85 988.1
20260506000923 12 236 0.0 0.0 0.00 0.84 0.00 85 988.0
20260506000822 12 114 0.0 0.0 0.00 0.84 0.00 84 987.9
20260506000722 12 112 0.0 0.0 0.00 0.84 0.00 84 987.9
20260506000622 12 112 0.0 0.0 0.00 0.84 0.00 84 987.9
20260506000522 12 112 0.0 0.0 0.00 0.84 0.00 84 987.9
20260506000423 12 112 0.0 0.0 0.00 0.84 0.00 84 987.9
20260506000323 12 112 0.0 0.0 0.00 0.84 0.00 84 988.0
20260506000222 12 112 0.0 0.0 0.00 0.84 0.00 84 987.9
20260506000122 12 112 0.0 0.0 0.00 0.84 0.00 84 987.9
20260506000022 12 119 0.0 1.6 0.00 0.84 0.00 84 987.8
20260505235922 12 122 0.0 1.6 0.00 0.84 0.00 83 987.8
20260505235822 12 112 0.0 0.0 0.00 0.84 0.00 83 987.8
20260505235722 12 109 0.0 1.6 0.00 0.84 0.00 83 987.7
20260505235622 12 3 0.0 1.6 0.00 0.84 0.00 84 987.7
20260505235522 12 0 0.0 0.0 0.00 0.84 0.00 83 987.7
20260505235422 13 329 0.0 0.0 0.00 0.84 0.00 83 987.7
20260505235322 13 295 0.0 0.0 0.00 0.84 0.00 83 987.9
20260505235222 13 67 0.0 0.0 0.00 0.84 0.00 82 988.0
20260505235122 13 80 0.0 0.0 0.00 0.84 0.00 82 987.8
20260505235022 13 90 0.0 1.6 0.00 0.84 0.00 82 987.8
20260505234922 13 62 0.0 1.6 0.00 0.84 0.00 81 987.9
20260505234822 13 118 0.0 0.0 0.00 0.84 0.00 81 987.9
20260505234722 13 135 0.0 0.0 0.00 0.84 0.00 80 987.9
20260505234622 13 127 0.0 3.2 0.00 0.84 0.00 80 987.8
20260505234522 13 112 0.0 3.2 0.00 0.84 0.00 80 987.7
20260505234422 13 112 1.6 3.2 0.00 0.84 0.00 80 987.8
20260505234321 13 112 1.6 3.2 0.00 0.84 0.00 80 987.8
20260505234221 13 112 1.6 3.2 0.00 0.84 0.00 80 987.8
20260505234121 13 111 1.6 3.2 0.00 0.84 0.00 79 987.8
20260505234021 13 102 1.6 8.0 0.00 0.84 0.00 79 987.9
20260505233921 13 112 1.6 11.3 0.00 0.84 0.00 79 987.8
20260505233821 13 134 1.6 11.3 0.00 0.84 0.00 79 987.8
20260505233721 13 172 3.2 4.8 0.00 0.84 0.00 78 987.9
20260505233621 13 132 1.6 4.8 0.00 0.84 0.00 79 987.7
20260505233521 13 112 1.6 4.8 0.00 0.84 0.00 79 987.9
20260505233421 13 121 1.6 4.8 0.00 0.84 0.00 79 988.0
20260505233321 13 128 1.6 8.0 0.00 0.84 0.00 79 988.0
20260505233221 13 92 3.2 8.0 0.00 0.84 0.00 79 988.1
20260505233121 13 168 1.6 4.8 0.00 0.84 0.00 79 988.0
20260505233021 13 101 1.6 3.2 0.00 0.84 0.00 79 988.0
20260505232921 13 106 0.0 3.2 0.00 0.84 0.00 79 988.0
20260505232821 13 315 1.6 3.2 0.00 0.84 0.00 79 988.0
20260505232723 13 105 1.6 3.2 0.00 0.84 0.00 79 988.0
20260505232623 13 90 1.6 4.8 0.00 0.84 0.00 78 988.0
20260505232523 13 121 1.6 8.0 0.00 0.84 0.00 78 987.9
20260505232423 13 170 3.2 9.7 0.00 0.84 0.00 78 988.0
20260505232323 13 158 3.2 9.7 0.00 0.84 0.00 78 988.0
20260505232223 13 147 1.6 4.8 0.00 0.84 0.00 78 988.0
20260505232122 13 121 1.6 4.8 0.00 0.84 0.00 79 988.1
20260505232022 13 178 1.6 3.2 0.00 0.84 0.00 79 988.1
20260505231922 13 146 0.0 1.6 0.00 0.84 0.00 79 988.0
20260505231822 13 103 1.6 3.2 0.00 0.84 0.00 79 988.1
20260505231722 13 132 1.6 8.0 0.00 0.84 0.00 79 988.1
20260505231622 13 142 3.2 8.0 0.00 0.84 0.00 79 988.1
20260505231522 13 112 3.2 8.0 0.00 0.84 0.00 79 988.1
20260505231422 13 128 1.6 3.2 0.00 0.84 0.00 79 988.1
20260505231322 13 146 1.6 4.8 0.00 0.84 0.00 78 988.1
20260505231222 13 91 1.6 4.8 0.00 0.84 0.00 79 988.1
20260505231122 13 90 1.6 3.2 0.00 0.84 0.00 79 988.0
20260505231022 13 97 1.6 3.2 0.00 0.84 0.00 79 988.0
20260505230922 13 79 1.6 8.0 0.00 0.84 0.00 79 988.2
20260505230822 13 89 1.6 8.0 0.00 0.84 0.00 80 988.1
20260505230722 13 53 1.6 4.8 0.00 0.84 0.00 80 988.2
20260505230622 13 112 1.6 3.2 0.00 0.84 0.00 80 988.3
20260505230522 13 127 1.6 3.2 0.00 0.84 0.00 81 988.1
20260505230422 13 90 1.6 4.8 0.00 0.84 0.00 81 988.3
20260505230322 13 301 1.6 4.8 0.00 0.84 0.00 81 988.3
20260505230222 13 134 1.6 4.8 0.00 0.84 0.00 81 988.2
20260505230122 13 127 1.6 4.8 0.00 0.84 0.00 81 988.2
20260505230022 13 102 0.0 3.2 0.00 0.84 0.00 81 988.3
20260505225922 13 83 0.0 1.6 0.00 0.84 0.00 82 988.3
20260505225821 13 76 0.0 1.6 0.00 0.84 0.00 82 988.4
20260505225721 13 106 0.0 3.2 0.00 0.84 0.00 81 988.2
20260505225621 13 106 1.6 3.2 0.00 0.84 0.00 81 988.2
20260505225521 13 116 0.0 1.6 0.00 0.84 0.00 81 988.3
20260505225421 13 102 0.0 1.6 0.00 0.84 0.00 81 988.3
20260505225321 13 128 0.0 1.6 0.00 0.84 0.00 81 988.3
20260505225221 13 135 0.0 3.2 0.00 0.84 0.00 82 988.3
20260505225121 13 135 1.6 4.8 0.00 0.84 0.00 81 988.3
20260505225021 13 120 0.0 4.8 0.00 0.84 0.00 82 988.4
20260505224921 13 120 0.0 3.2 0.00 0.84 0.00 82 988.5
20260505224821 13 96 0.0 1.6 0.00 0.84 0.00 82 988.4
20260505224721 13 112 1.6 3.2 0.00 0.84 0.00 82 988.5
20260505224621 13 82 0.0 3.2 0.00 0.84 0.00 82 988.5
20260505224521 13 82 0.0 1.6 0.00 0.84 0.00 82 988.3
20260505224421 13 76 0.0 1.6 0.00 0.84 0.00 82 988.4
20260505224321 13 104 0.0 1.6 0.00 0.84 0.00 82 988.4
20260505224221 13 125 0.0 3.2 0.00 0.84 0.00 82 988.3
20260505224121 13 112 0.0 3.2 0.00 0.84 0.00 81 988.4
20260505224021 13 112 1.6 3.2 0.00 0.84 0.00 81 988.3
20260505223921 13 120 1.6 3.2 0.00 0.84 0.00 82 988.4
20260505223821 13 135 1.6 1.6 0.00 0.84 0.00 81 988.4
20260505223723 13 127 0.0 1.6 0.00 0.84 0.00 81 988.4
20260505223623 13 195 0.0 1.6 0.00 0.84 0.00 81 988.4
20260505223523 13 270 0.0 4.8 0.00 0.84 0.00 81 988.4
20260505223423 13 270 1.6 4.8 0.00 0.84 0.00 81 988.4
20260505223323 13 93 1.6 3.2 0.00 0.84 0.00 81 988.5
20260505223223 13 114 1.6 1.6 0.00 0.84 0.00 81 988.4
20260505223122 13 124 0.0 1.6 0.00 0.84 0.00 81 988.5
20260505223022 13 112 0.0 3.2 0.00 0.84 0.00 80 988.4
20260505222922 13 127 1.6 3.2 0.00 0.84 0.00 80 988.5
20260505222822 13 112 1.6 4.8 0.00 0.84 0.00 80 988.4
20260505222722 13 112 1.6 4.8 0.00 0.84 0.00 80 988.4
20260505222622 13 138 1.6 3.2 0.00 0.84 0.00 80 988.5
20260505222522 13 110 1.6 3.2 0.00 0.84 0.00 80 988.4
20260505222422 13 137 1.6 3.2 0.00 0.84 0.00 80 988.5
20260505222322 13 292 0.0 4.8 0.00 0.84 0.00 80 988.4
20260505222222 13 292 1.6 9.7 0.00 0.84 0.00 80 988.5
20260505222122 13 103 1.6 9.7 0.00 0.84 0.00 79 988.4
20260505222022 13 74 1.6 4.8 0.00 0.84 0.00 79 988.4
20260505221922 13 145 3.2 8.0 0.00 0.84 0.00 80 988.4
20260505221822 13 100 1.6 8.0 0.00 0.84 0.00 81 988.4
20260505221722 13 94 1.6 3.2 0.00 0.84 0.00 80 988.5
20260505221622 13 112 0.0 1.6 0.00 0.84 0.00 80 988.3
20260505221522 13 104 0.0 1.6 0.00 0.84 0.00 80 988.4
20260505221422 13 123 1.6 9.7 0.00 0.84 0.00 79 988.4
20260505221322 13 129 1.6 9.7 0.00 0.84 0.00 80 988.4
20260505221222 13 112 1.6 8.0 0.00 0.84 0.00 80 988.5
20260505221122 13 122 3.2 8.0 0.00 0.84 0.00 80 988.4
20260505221022 13 135 3.2 4.8 0.00 0.84 0.00 80 988.5
20260505220921 13 135 1.6 4.8 0.00 0.84 0.00 81 988.4
20260505220821 13 127 1.6 3.2 0.00 0.84 0.00 80 988.6
20260505220721 13 68 0.0 3.2 0.00 0.84 0.00 81 988.4
20260505220621 13 84 1.6 4.8 0.00 0.84 0.00 80 988.4
20260505220521 13 167 1.6 4.8 0.00 0.84 0.00 80 988.3
20260505220421 13 90 1.6 1.6 0.00 0.84 0.00 80 988.3
20260505220321 13 97 0.0 1.6 0.00 0.84 0.00 81 988.3
20260505220221 13 112 0.0 0.0 0.00 0.84 0.00 81 988.3
20260505220121 13 116 0.0 3.2 0.00 0.84 0.00 81 988.4
20260505220021 13 152 1.6 3.2 0.00 0.84 0.00 80 988.3
20260505215921 13 117 1.6 3.2 0.00 0.84 0.84 80 988.4
20260505215821 13 135 0.0 3.2 0.00 0.84 0.84 81 988.4
20260505215721 13 130 1.6 8.0 0.00 0.84 0.84 80 988.4
20260505215623 13 114 3.2 8.0 0.00 0.84 0.84 80 988.3
20260505215523 13 128 3.2 8.0 0.00 0.84 0.84 81 988.4
20260505215423 13 127 3.2 8.0 0.00 0.84 0.84 82 988.3
20260505215323 13 119 1.6 8.0 0.00 0.84 0.84 83 988.3
20260505215223 13 112 1.6 3.2 0.00 0.84 0.84 83 988.4
20260505215123 13 105 1.6 3.2 0.00 0.84 0.84 83 988.4
20260505215023 13 122 0.0 1.6 0.00 0.84 0.84 83 988.5
20260505214922 13 113 0.0 1.6 0.00 0.84 0.84 83 988.5
20260505214822 13 342 1.6 1.6 0.00 0.84 0.84 83 988.4
20260505214722 13 127 0.0 1.6 0.00 0.84 0.84 83 988.5
20260505214622 13 99 0.0 1.6 0.00 0.84 0.84 82 988.3
20260505214522 13 142 0.0 3.2 0.00 0.84 0.84 82 988.4
20260505214422 13 135 1.6 3.2 0.00 0.84 0.84 82 988.4
20260505214322 13 135 0.0 3.2 0.00 0.84 0.84 82 988.3
20260505214222 13 135 0.0 3.2 0.00 0.84 0.84 82 988.5
20260505214122 13 122 0.0 1.6 0.00 0.84 0.84 81 988.4
20260505214022 13 130 1.6 8.0 0.00 0.84 0.84 81 988.5
20260505213922 13 118 3.2 8.0 0.00 0.84 0.84 80 988.3
20260505213822 13 123 1.6 3.2 0.00 0.84 0.84 81 988.4
20260505213722 13 125 0.0 3.2 0.00 0.84 0.84 81 988.5
20260505213622 13 114 1.6 3.2 0.00 0.84 0.84 81 988.4
20260505213522 13 135 1.6 3.2 0.00 0.84 0.84 82 988.4
20260505213422 13 100 1.6 3.2 0.00 0.84 0.84 81 988.5
20260505213322 13 112 1.6 4.8 0.00 0.84 0.84 81 988.3
20260505213222 13 135 1.6 3.2 0.00 0.84 0.84 82 988.2
20260505213122 13 127 1.6 3.2 0.00 0.84 0.84 82 988.4
20260505213022 13 112 1.6 3.2 0.00 0.84 0.84 81 988.3
20260505212922 13 132 1.6 4.8 0.00 0.84 0.84 81 988.4
20260505212821 13 115 3.2 4.8 0.00 0.84 0.84 81 988.3
20260505212721 13 150 1.6 4.8 0.00 0.84 0.84 82 988.4
20260505212621 13 181 1.6 3.2 0.00 0.84 0.84 82 988.3
20260505212521 13 113 1.6 3.2 0.00 0.84 0.84 82 988.4
20260505212421 13 78 1.6 3.2 0.00 0.84 0.84 82 988.5
20260505212321 13 135 1.6 8.0 0.00 0.84 0.84 82 988.5
20260505212221 13 152 1.6 8.0 0.00 0.84 0.84 82 988.4
20260505212121 13 117 0.0 8.0 0.00 0.84 0.84 83 988.5
20260505212021 13 112 1.6 1.6 0.00 0.84 0.84 83 988.6
20260505211921 13 112 0.0 1.6 0.00 0.84 0.84 82 988.3
20260505211823 13 112 1.6 1.6 0.00 0.84 0.84 82 988.5
20260505211723 13 112 0.0 1.6 0.00 0.84 0.84 83 988.4
20260505211623 13 110 0.0 3.2 0.00 0.84 0.84 82 988.5
20260505211523 13 60 1.6 3.2 0.00 0.84 0.84 82 988.5
20260505211422 13 55 1.6 3.2 0.00 0.84 0.84 81 988.5
20260505211322 13 128 0.0 3.2 0.00 0.84 0.84 81 988.5
20260505211222 13 172 1.6 3.2 0.00 0.84 0.84 81 988.5
20260505211122 13 121 1.6 4.8 0.00 0.84 0.84 81 988.5
20260505211022 13 135 1.6 4.8 0.00 0.84 0.84 82 988.5
20260505210922 13 130 1.6 3.2 0.00 0.84 0.84 82 988.4
20260505210822 13 123 1.6 3.2 0.00 0.84 0.84 82 988.3
20260505210722 13 263 1.6 3.2 0.00 0.84 0.84 82 988.5
20260505210622 13 41 0.0 3.2 0.00 0.84 0.84 83 988.5
20260505210522 13 76 0.0 3.2 0.00 0.84 0.84 83 988.3
20260505210422 13 95 1.6 3.2 0.00 0.84 0.84 83 988.4
20260505210322 13 112 0.0 1.6 0.00 0.84 0.84 84 988.4
20260505210222 13 68 1.6 1.6 0.00 0.84 0.84 83 988.4
20260505210122 13 45 1.6 1.6 0.00 0.84 0.84 84 988.6
20260505210022 13 73 0.0 1.6 0.00 0.84 0.84 83 988.5
20260505205922 13 304 0.0 1.6 0.00 0.84 0.84 83 988.5
20260505205822 13 274 0.0 1.6 0.00 0.84 0.84 83 988.4
20260505205722 13 112 1.6 8.0 0.00 0.84 0.84 82 988.2
20260505205622 13 146 1.6 8.0 0.00 0.84 0.84 83 988.4
20260505205522 13 63 0.0 3.2 0.00 0.84 0.84 83 988.5
20260505205422 13 45 0.0 0.0 0.00 0.84 0.84 83 988.3
20260505205322 13 68 0.0 0.0 0.00 0.84 0.84 83 988.4
20260505205222 13 68 0.0 9.7 0.00 0.84 0.84 82 988.4
20260505205122 13 77 1.6 9.7 0.00 0.84 0.84 82 988.4
20260505205021 13 135 1.6 4.8 0.00 0.84 0.84 82 988.2
20260505204921 13 135 1.6 4.8 0.00 0.84 0.84 82 988.3
20260505204821 13 131 1.6 4.8 0.00 0.84 0.84 82 988.3
20260505204721 13 42 1.6 3.2 0.00 0.84 0.84 83 988.3
20260505204621 13 283 0.0 3.2 0.00 0.84 0.84 84 988.3
20260505204521 13 85 1.6 3.2 0.00 0.84 0.84 83 988.4
20260505204421 13 340 0.0 3.2 0.00 0.84 0.84 84 988.4
20260505204321 14 228 1.6 3.2 0.00 0.84 0.84 83 988.3
20260505204221 14 119 1.6 3.2 0.00 0.84 0.84 83 988.4
20260505204121 14 112 1.6 3.2 0.00 0.84 0.84 82 988.5
20260505204021 14 123 1.6 3.2 0.00 0.84 0.84 83 988.3
20260505203921 14 112 0.0 3.2 0.00 0.84 0.84 83 988.3
20260505203821 14 111 0.0 4.8 0.00 0.84 0.84 83 988.3
20260505203721 14 33 1.6 4.8 0.00 0.84 0.84 82 988.2
20260505203621 13 91 1.6 4.8 0.00 0.84 0.84 82 988.2
20260505203523 13 135 1.6 4.8 0.00 0.84 0.84 83 988.3
20260505203423 13 117 0.0 4.8 0.00 0.84 0.84 84 988.3
20260505203323 13 112 1.6 3.2 0.00 0.84 0.84 84 988.3
20260505203223 13 112 1.6 3.2 0.00 0.84 0.84 84 988.3
20260505203123 13 122 1.6 3.2 0.00 0.84 0.84 84 988.3
20260505203023 13 117 0.0 3.2 0.00 0.84 0.84 84 988.4
20260505202922 13 112 1.6 3.2 0.00 0.84 0.84 84 988.5
20260505202822 13 127 1.6 3.2 0.00 0.84 0.84 85 988.4
20260505202722 13 112 1.6 3.2 0.00 0.84 0.84 85 988.4
20260505202622 13 202 0.0 3.2 0.00 0.84 0.84 85 988.4
20260505202522 13 15 1.6 1.6 0.00 0.84 0.84 84 988.5
20260505202422 13 126 1.6 8.0 0.00 0.84 0.84 85 988.4
20260505202322 13 112 0.0 3.2 0.00 0.84 0.84 85 988.5
20260505202222 13 112 1.6 3.2 0.00 0.84 0.84 85 988.4
20260505202122 13 112 1.6 1.6 0.00 0.84 0.84 85 988.4
20260505202022 13 112 0.0 3.2 0.00 0.84 0.84 85 988.3
20260505201922 13 122 0.0 3.2 0.00 0.84 0.84 85 988.4
20260505201822 13 135 0.0 0.0 0.00 0.84 0.84 85 988.2
20260505201722 13 135 0.0 0.0 0.00 0.84 0.84 84 988.4
20260505201622 13 129 0.0 1.6 0.00 0.84 0.84 84 988.3
20260505201522 13 112 0.0 1.6 0.00 0.84 0.84 84 988.3
20260505201422 14 155 0.0 1.6 0.00 0.84 0.84 84 988.4
20260505201322 14 59 0.0 1.6 0.00 0.84 0.84 84 988.4
20260505201222 14 103 0.0 1.6 0.00 0.84 0.84 84 988.4
20260505201122 14 110 0.0 1.6 0.00 0.84 0.84 84 988.5
20260505201022 14 111 0.0 3.2 0.00 0.84 0.84 84 988.3
20260505200922 14 123 0.0 3.2 0.00 0.84 0.84 84 988.4
20260505200822 14 135 0.0 3.2 0.00 0.84 0.84 84 988.6
20260505200722 14 46 0.0 3.2 0.00 0.84 0.84 84 988.5
20260505200622 14 0 0.0 0.0 0.00 0.84 0.84 85 988.3
20260505200522 14 346 0.0 0.0 0.00 0.84 0.84 84 988.3
20260505200422 14 95 0.0 0.0 0.00 0.84 0.84 83 988.5
20260505200322 14 158 0.0 1.6 0.00 0.84 0.84 83 988.5
20260505200222 14 126 1.6 3.2 0.00 0.84 0.84 83 988.5
20260505200121 14 149 1.6 3.2 0.00 0.84 0.84 83 988.5
20260505200021 14 139 0.0 4.8 0.00 0.84 0.84 83 988.4
20260505195921 14 135 1.6 4.8 0.00 0.84 0.84 83 988.5
20260505195821 14 124 1.6 3.2 0.00 0.84 0.84 83 988.5
20260505195721 14 112 0.0 3.2 0.00 0.84 0.84 83 988.4
20260505195621 14 104 1.6 1.6 0.00 0.84 0.84 83 988.4
20260505195521 14 135 1.6 4.8 0.00 0.84 0.84 83 988.6
20260505195421 14 120 0.0 4.8 0.00 0.84 0.84 84 988.4
20260505195321 14 111 1.6 4.8 0.00 0.84 0.84 83 988.5
20260505195221 14 344 1.6 4.8 0.00 0.84 0.84 83 988.5
20260505195121 14 12 1.6 4.8 0.00 0.84 0.84 83 988.4
20260505195021 14 112 0.0 3.2 0.00 0.84 0.84 84 988.4
20260505194921 14 112 1.6 3.2 0.00 0.84 0.84 84 988.3
20260505194821 14 157 1.6 3.2 0.00 0.84 0.84 83 988.2
20260505194721 14 315 0.0 1.6 0.00 0.84 0.84 83 988.2
20260505194621 14 134 1.6 3.2 0.00 0.84 0.84 83 988.3
20260505194523 14 93 1.6 3.2 0.00 0.84 0.84 83 988.3
20260505194423 14 277 1.6 4.8 0.00 0.84 0.84 83 988.2
20260505194323 14 101 1.6 9.7 0.00 0.84 0.84 83 988.2
20260505194223 14 135 1.6 9.7 0.00 0.84 0.84 83 988.2
20260505194123 14 98 1.6 4.8 0.00 0.84 0.84 84 988.2
20260505194023 14 115 0.0 3.2 0.00 0.84 0.84 83 988.2
20260505193922 14 125 0.0 3.2 0.00 0.84 0.84 83 988.2
20260505193822 14 29 0.0 1.6 0.00 0.84 0.84 83 988.3
20260505193722 14 70 0.0 3.2 0.00 0.84 0.84 83 988.2
20260505193622 14 173 1.6 4.8 0.00 0.84 0.84 82 988.3
20260505193522 14 135 1.6 3.2 0.00 0.84 0.84 83 988.0
20260505193422 14 119 1.6 3.2 0.00 0.84 0.84 83 988.1
20260505193322 14 127 1.6 1.6 0.00 0.84 0.84 83 988.1
20260505193222 14 287 1.6 11.3 0.00 0.84 0.84 83 988.1
20260505193122 14 135 1.6 3.2 0.00 0.84 0.84 84 988.1
20260505193022 14 119 1.6 3.2 0.00 0.84 0.84 84 988.2
20260505192922 14 112 0.0 3.2 0.00 0.84 0.84 84 988.3
20260505192822 14 113 1.6 3.2 0.00 0.84 0.84 84 988.3
20260505192722 14 99 1.6 3.2 0.00 0.84 0.84 83 988.2
20260505192622 14 96 0.0 1.6 0.00 0.84 0.84 83 988.1
20260505192522 14 106 1.6 4.8 0.00 0.84 0.84 83 988.2
20260505192422 14 117 1.6 4.8 0.00 0.84 0.84 83 988.2
20260505192322 14 135 1.6 4.8 0.00 0.84 0.84 83 988.2
20260505192222 14 135 1.6 4.8 0.00 0.84 0.84 83 988.2
20260505192122 14 120 1.6 4.8 0.00 0.84 0.84 83 988.1
20260505192022 14 121 1.6 8.0 0.00 0.84 0.84 83 988.1
20260505191922 14 103 1.6 8.0 0.00 0.84 0.84 84 988.1
20260505191822 14 135 1.6 3.2 0.00 0.84 0.84 84 988.2
20260505191722 14 116 1.6 3.2 0.00 0.84 0.84 83 988.1
20260505191621 14 115 1.6 3.2 0.00 0.84 0.84 83 988.1
20260505191521 14 135 1.6 3.2 0.00 0.84 0.84 83 988.1
20260505191421 13 135 1.6 3.2 0.00 0.84 0.84 83 988.0
20260505191321 13 136 1.6 1.6 0.00 0.84 0.84 84 988.2
20260505191221 13 102 1.6 4.8 0.00 0.84 0.84 84 988.2
20260505191121 13 84 1.6 4.8 0.00 0.84 0.84 85 988.2
20260505191021 13 112 0.0 1.6 0.00 0.84 0.84 85 988.3
20260505190921 13 114 0.0 3.2 0.00 0.84 0.84 84 988.3
20260505190821 13 127 0.0 3.2 0.00 0.84 0.84 85 988.2
20260505190721 13 112 0.0 0.0 0.00 0.84 0.84 84 988.2
20260505190621 13 112 1.6 8.0 0.00 0.84 0.84 84 988.2
20260505190521 13 139 1.6 8.0 0.00 0.84 0.84 84 988.2
20260505190421 13 254 0.0 1.6 0.00 0.84 0.84 85 988.2
20260505190321 13 261 0.0 3.2 0.00 0.84 0.84 85 988.3
20260505190221 13 121 0.0 3.2 0.00 0.84 0.84 85 988.1
20260505190123 13 112 0.0 1.6 0.00 0.84 0.84 85 988.2
20260505190023 13 112 0.0 1.6 0.00 0.84 0.84 85 988.3
20260505185923 13 112 0.0 3.2 0.00 0.84 0.84 84 988.1
20260505185823 13 122 1.6 3.2 0.00 0.84 0.84 84 988.0
20260505185723 13 123 0.0 3.2 0.00 0.84 0.84 85 988.2
20260505185623 13 127 1.6 3.2 0.00 0.84 0.84 85 988.1
20260505185522 13 112 1.6 3.2 0.00 0.84 0.84 85 988.2
20260505185422 13 142 0.0 3.2 0.00 0.84 0.84 85 988.1
20260505185322 13 139 1.6 3.2 0.00 0.84 0.84 85 988.0
20260505185222 13 113 1.6 3.2 0.00 0.84 0.84 85 988.0
20260505185122 13 103 0.0 3.2 0.00 0.84 0.84 84 988.1
20260505185022 13 90 0.0 0.0 0.00 0.84 0.84 85 988.1
20260505184922 13 90 0.0 1.6 0.00 0.84 0.84 84 988.1
20260505184822 13 90 0.0 1.6 0.00 0.84 0.84 85 988.0
20260505184722 13 90 0.0 1.6 0.00 0.84 0.84 85 988.1
20260505184622 13 102 0.0 1.6 0.00 0.84 0.84 85 988.0
20260505184522 13 112 0.0 3.2 0.00 0.84 0.84 84 988.0
20260505184422 13 112 1.6 4.8 0.00 0.84 0.84 84 988.2
20260505184322 13 127 1.6 4.8 0.00 0.84 0.84 84 988.1
20260505184222 13 142 1.6 3.2 0.00 0.84 0.84 85 988.0
20260505184122 14 117 0.0 3.2 0.00 0.84 0.84 84 988.0
20260505184022 14 135 1.6 3.2 0.00 0.84 0.84 84 988.1
20260505183922 14 135 3.2 3.2 0.00 0.84 0.84 84 987.9
20260505183822 14 135 1.6 3.2 0.00 0.84 0.84 85 988.1
20260505183722 14 135 1.6 3.2 0.00 0.84 0.84 84 988.1
20260505183622 14 135 1.6 4.8 0.00 0.84 0.84 85 988.0
20260505183522 14 135 1.6 4.8 0.00 0.84 0.84 85 988.0
20260505183422 14 100 1.6 3.2 0.00 0.84 0.84 85 988.1
20260505183322 14 131 1.6 3.2 0.00 0.84 0.84 85 988.2
20260505183222 14 156 1.6 4.8 0.00 0.84 0.84 85 988.0
20260505183121 14 135 1.6 4.8 0.00 0.84 0.84 85 988.1
20260505183021 14 117 1.6 4.8 0.00 0.84 0.84 85 988.1
20260505182921 14 118 1.6 4.8 0.00 0.84 0.84 86 988.1
20260505182821 14 135 0.0 1.6 0.00 0.84 0.84 85 988.0
20260505182721 14 120 1.6 1.6 0.00 0.84 0.84 86 988.1
20260505182621 14 133 1.6 3.2 0.00 0.84 0.84 85 988.0
20260505182521 14 120 1.6 3.2 0.00 0.84 0.84 86 988.0
20260505182421 14 132 1.6 3.2 0.00 0.84 0.84 86 988.1
20260505182321 14 105 1.6 3.2 0.00 0.84 0.84 86 988.1
20260505182221 14 90 1.6 3.2 0.00 0.84 0.84 86 988.1
20260505182121 14 150 1.6 3.2 0.00 0.84 0.84 86 988.1
20260505182021 14 147 1.6 3.2 0.03 0.84 0.84 87 988.0
20260505181921 14 150 1.6 1.6 0.03 0.84 0.84 87 987.9
20260505181821 14 134 1.6 1.6 0.03 0.84 0.84 87 988.0
20260505181721 14 114 0.0 1.6 0.03 0.84 0.84 87 988.2
20260505181621 14 112 0.0 0.0 0.03 0.84 0.84 87 988.0
20260505181523 14 112 0.0 0.0 0.03 0.84 0.84 88 988.2
20260505181423 14 113 0.0 1.6 0.03 0.84 0.84 88 988.1
20260505181323 14 133 0.0 1.6 0.03 0.84 0.84 88 988.1
20260505181223 14 135 0.0 3.2 0.05 0.84 0.84 88 988.1
20260505181123 14 111 0.0 3.2 0.05 0.84 0.84 88 988.0
20260505181023 14 90 0.0 1.6 0.10 0.84 0.84 89 988.1
20260505180922 14 90 0.0 1.6 0.10 0.84 0.84 90 988.1
20260505180822 14 90 0.0 0.0 0.10 0.84 0.84 89 988.1
20260505180722 14 90 0.0 1.6 0.10 0.84 0.84 89 988.1
20260505180622 14 91 1.6 3.2 0.13 0.84 0.84 89 988.1
20260505180522 14 197 0.0 3.2 0.13 0.84 0.84 90 988.1
20260505180422 14 188 0.0 1.6 0.13 0.84 0.84 90 988.0
20260505180322 14 90 0.0 0.0 0.13 0.84 0.84 90 988.0
20260505180222 14 90 0.0 0.0 0.13 0.84 0.84 90 988.0
20260505180122 14 90 0.0 0.0 0.15 0.84 0.84 90 988.0
20260505180022 14 90 0.0 1.6 0.20 0.84 0.84 90 988.1
20260505175922 14 100 0.0 1.6 0.20 0.84 0.84 90 988.1
20260505175822 14 112 0.0 1.6 0.33 0.84 0.84 89 988.0
20260505175722 14 112 0.0 3.2 0.36 0.84 0.84 90 988.1
20260505175622 14 131 1.6 3.2 0.43 0.84 0.84 89 987.9
20260505175522 14 135 1.6 4.8 0.46 0.84 0.84 90 987.9